GFSNE_prec_cloud_003.txt.gz
Cloud_Cover
99 100 100 100 100 92 5 25 95 57 6 87 8 64 35 95 100 100 100 100 100 100 100 100 100 100 76 100 100 93 34 11 5 5 10 100 100 100
45 99 97 19 30 46 6 5 62 87 8 5 5 4 52 95 100 100 100 100 100 100 100 100 100 100 100 100 100 100 100 100 97 34 100 59 23 100
5 5 5 4 2 0 0 4 78 93 49 3 42 38 5 32 96 100 100 100 100 100 100 100 100 100 100 100 32 100 100 100 100 100 100 60 81 72
5 5 5 3 4 0 0 5 5 61 99 5 3 5 98 36 48 5 97 100 100 100 100 100 100 100 100 100 100 100 100 100 100 100 100 100 60 36
5 62 67 63 7 5 0 5 5 5 5 5 0 1 44 90 100 27 5 62 100 100 100 100 100 100 100 100 100 100 100 100 100 100 99 100 91 87
100 100 92 75 30 6 62 36 5 35 14 5 5 5 4 0 13 34 77 100 100 100 100 100 100 100 100 100 100 100 100 100 100 100 100 100 100 100
100 100 100 100 100 100 100 91 81 67 12 5 5 5 5 63 45 10 41 100 100 100 100 100 100 100 100 100 100 100 100 100 100 100 100 100 100 100
100 100 100 100 100 100 99 95 100 78 98 100 28 64 5 0 85 75 98 92 100 99 100 100 100 100 100 100 100 100 100 100 100 100 100 100 100 100
100 100 100 100 100 100 100 97 97 92 85 97 81 92 73 5 12 86 72 15 88 99 100 100 100 100 100 100 100 100 100 100 100 100 100 100 100 100
100 100 100 100 94 100 100 100 100 94 92 95 68 67 67 10 99 100 100 100 60 100 100 100 100 100 100 100 100 100 100 100 100 100 100 100 100 100
100 100 100 100 100 100 100 100 100 100 100 93 39 44 91 99 5 91 92 100 100 100 100 100 100 100 100 100 100 100 100 100 100 100 100 100 100 100
100 100 100 95 99 100 100 100 100 92 100 100 100 75 71 100 52 100 98 100 79 100 100 100 100 100 100 100 100 100 100 100 100 100 100 100 100 100
100 100 100 100 100 100 100 100 99 100 100 100 100 100 72 100 100 92 89 100 98 93 100 100 100 100 100 100 100 100 100 100 100 100 100 100 100 100
100 100 100 100 100 100 100 100 100 100 100 100 100 100 84 96 100 81 93 100 100 100 100 100 100 100 100 100 100 100 100 100 100 100 100 100 100 100
100 100 100 100 100 100 100 100 100 100 100 100 100 100 100 56 100 100 96 100 88 100 100 100 100 100 100 100 100 100 100 100 100 100 100 100 100 100
100 100 98 100 100 100 100 100 100 100 100 100 100 100 100 99 100 100 99 100 100 100 100 100 100 100 100 100 100 100 100 100 100 100 100 100 100 100
100 100 100 100 100 100 100 100 100 100 99 100 100 100 100 100 100 87 100 100 100 100 100 100 100 100 100 100 100 100 100 100 100 100 100 100 100 100
100 100 100 100 100 100 100 100 100 99 94 100 100 100 100 100 100 100 100 100 100 100 100 100 100 100 98 100 100 100 100 100 100 100 100 100 100 100
100 100 100 100 100 100 100 100 100 100 100 100 100 100 73 99 100 100 100 100 100 100 99 100 100 100 100 100 100 100 100 100 100 100 100 100 100 100
100 100 100 100 100 100 100 100 100 100 100 100 100 100 100 100 97 97 100 100 100 100 100 100 100 100 100 100 98 100 100 100 100 100 100 100 100 100
100 100 100 100 100 100 100 100 100 100 100 100 100 100 100 100 100 100 100 100 99 100 100 100 100 98 100 100 100 100 100 100 100 100 100 100 100 100
100 100 100 100 100 100 100 100 100 100 100 100 100 100 100 100 100 100 100 100 100 100 100 100 100 100 100 100 100 100 100 100 100 100 100 100 100 100
100 100 100 100 100 100 100 100 100 100 100 100 100 100 100 100 100 100 100 100 98 96 100 100 100 100 100 100 100 100 100 100 100 100 100 100 100 100

GFSNE_prec_cloud_009.txt.gz
Cloud_Cover
100 100 100 92 100 89 87 97 100 100 100 100 100 100 100 94 100 100 100 100 100 100 99 100 100 100 100 99 100 100 100 100 100 99 100 7 53 100
100 100 100 100 100 100 100 100 79 92 100 100 100 100 100 100 100 98 100 100 100 100 100 88 91 100 100 100 100 100 100 100 100 100 100 80 38 100
63 43 36 28 67 100 100 88 72 26 8 98 100 100 100 100 100 100 100 100 100 100 100 100 100 94 100 100 100 100 100 100 100 100 100 100 97 100
100 100 100 100 63 12 61 84 98 23 5 5 38 100 100 100 100 100 100 100 95 100 100 100 100 100 100 100 100 100 100 100 100 100 100 99 100 100
100 44 40 8 5 4 5 5 5 10 5 5 26 59 75 100 100 100 100 100 96 97 98 100 100 100 100 100 100 100 100 100 100 100 100 100 100 100
5 29 17 5 5 5 5 5 5 5 24 18 5 16 83 46 12 5 7 64 100 59 100 88 100 100 100 100 100 100 100 100 100 100 100 100 100 100
5 2 4 5 5 6 5 5 5 67 91 100 95 93 99 100 77 79 91 45 5 88 12 95 83 96 100 100 100 100 100 100 100 100 100 100 100 100
5 5 5 5 5 5 5 12 11 92 100 100 100 100 100 100 100 100 100 98 11 49 58 32 100 98 10 100 100 100 100 100 100 100 100 100 100 100
5 5 5 5 5 5 5 31 72 96 90 87 100 100 100 94 87 80 59 100 100 24 89 97 59 99 34 18 25 96 100 100 100 100 100 100 100 100
9 5 22 33 70 88 95 76 58 90 95 67 60 64 63 46 23 69 5 39 99 100 100 99 59 45 36 36 25 93 98 100 100 100 100 100 100 100
77 65 76 100 100 99 100 100 90 66 96 100 60 26 10 64 100 100 100 99 61 16 100 100 99 62 41 30 25 46 96 88 100 100 100 100 100 100
100 100 100 100 100 100 100 100 100 100 100 72 64 57 49 99 100 100 100 100 100 86 23 98 98 95 96 76 38 39 82 100 93 100 100 100 100 100
100 100 92 99 100 99 100 100 96 95 98 100 85 75 82 100 100 100 100 100 100 100 56 86 53 96 100 48 36 27 94 100 100 100 100 100 100 100
100 92 98 99 95 93 100 100 100 100 100 100 100 100 100 100 100 100 100 99 37 29 97 100 84 96 100 89 82 49 100 100 100 100 100 100 100 100
100 100 100 100 100 100 92 100 94 100 100 99 100 100 100 100 100 100 88 100 78 83 100 67 87 100 100 100 87 97 100 100 100 100 100 100 100 100
100 100 77 76 96 100 100 100 100 100 100 100 100 100 100 100 100 75 100 100 100 100 100 100 100 100 100 100 97 100 100 97 99 100 100 100 100 100
100 93 48 53 100 100 100 100 100 100 100 100 100 100 100 100 100 100 100 100 100 100 100 100 100 100 100 100 98 88 100 100 99 100 100 100 100 100
100 66 97 92 100 100 100 100 96 100 100 100 72 70 88 96 100 100 100 100 100 100 100 100 100 100 100 100 95 73 93 100 100 100 100 100 100 100
100 100 90 100 98 100 100 100 100 100 100 88 89 100 83 100 100 100 100 100 100 100 100 100 100 100 99 99 96 99 97 100 100 100 100 100 100 100
100 100 100 100 100 100 100 100 98 100 100 100 100 74 100 95 89 95 100 100 100 100 100 98 99 100 100 36 100 100 100 100 100 100 100 100 100 100
100 100 100 100 100 98 98 98 100 99 99 100 100 100 100 90 98 96 68 78 100 100 98 100 100 100 95 95 92 100 100 100 100 100 100 100 100 100
100 100 100 100 100 100 99 97 92 96 94 86 92 99 100 95 97 93 88 97 94 96 98 100 100 99 69 83 97 100 100 100 100 100 100 100 100 100
100 100 100 100 100 100 100 100 88 99 98 88 91 97 100 99 99 87 73 72 79 100 99 100 100 100 100 100 100 100 100 100 100 100 100 100 100 100

GFSNE_prec_cloud_012.txt.gz
Cloud_Cover
100 100 100 100 100 100 100 85 5 7 7 100 100 100 100 100 100 100 91 100 100 100 100 100 100 100 100 100 100 100 100 100 100 100 100 100 100 100
100 100 100 100 100 100 100 93 10 5 5 100 100 100 100 100 100 100 100 100 99 100 100 100 100 100 100 100 100 100 100 100 100 100 100 100 100 100
100 100 100 100 99 86 76 86 100 47 5 5 100 100 100 100 100 100 100 100 98 100 100 100 100 100 100 100 100 100 100 100 100 100 100 100 100 100
100 100 96 99 98 94 50 48 96 100 33 5 5 92 100 100 100 100 100 100 100 100 96 100 100 100 100 100 100 100 100 100 100 100 100 100 100 100
100 100 100 100 100 100 87 5 5 5 5 5 41 42 99 100 100 100 100 100 96 100 100 94 100 100 100 100 100 100 100 100 100 100 100 100 100 100
92 54 20 5 5 5 5 5 5 5 5 5 23 91 94 100 100 100 100 100 100 100 100 100 83 99 100 100 100 100 100 100 100 100 100 100 100 100
5 2 3 1 5 5 5 5 15 5 13 13 42 97 100 100 100 99 100 100 100 99 85 100 100 78 78 100 100 100 100 100 100 100 100 100 100 100
4 5 5 5 5 5 5 5 5 42 82 100 100 100 96 100 99 92 70 100 100 100 97 41 96 100 100 74 100 100 100 100 100 100 100 100 100 100
5 5 6 5 5 17 12 7 5 16 18 55 100 99 100 100 98 92 99 98 62 100 100 100 99 100 49 12 5 78 100 100 100 100 100 100 100 100
6 29 89 100 100 100 100 100 100 96 56 52 92 100 98 90 93 82 99 87 54 5 69 100 100 100 90 22 9 13 60 100 100 100 100 100 100 100
18 9 48 96 49 93 98 100 100 98 66 13 12 89 100 100 84 99 100 100 98 36 10 89 95 87 65 100 21 5 7 94 100 100 100 100 100 100
84 77 82 83 76 100 100 100 100 99 100 86 77 95 97 94 100 100 100 100 100 100 5 46 93 89 39 63 64 30 40 4 11 98 100 100 100 100
100 100 78 64 81 100 100 100 96 74 99 100 100 97 93 89 83 90 97 100 100 100 99 45 46 71 46 37 64 34 83 78 82 100 100 100 100 100
100 99 100 100 89 100 100 100 91 100 100 100 100 100 100 100 100 79 83 93 99 100 100 58 14 69 96 82 70 28 34 24 52 97 100 100 100 100
99 92 82 30 7 76 98 100 90 97 100 100 98 92 100 100 100 90 58 100 100 100 100 67 8 18 7 15 7 82 68 13 46 47 100 100 100 100
100 97 63 52 79 100 97 99 100 100 100 100 100 99 100 100 100 100 93 100 100 100 100 92 50 65 95 75 20 36 69 79 50 63 100 100 100 100
95 95 95 74 76 89 100 89 99 99 100 100 100 100 91 97 95 96 100 100 99 100 99 100 100 100 100 100 89 59 55 87 100 86 100 100 100 100
100 97 84 78 100 100 100 91 46 92 95 78 85 55 48 70 58 91 100 100 100 100 100 100 100 100 100 100 86 94 66 76 100 96 100 100 100 100
100 100 100 98 98 100 100 100 99 100 100 100 100 100 100 99 100 100 100 100 100 100 100 100 100 100 100 100 100 97 92 92 100 100 100 100 100 100
100 100 100 100 100 100 100 100 99 99 98 100 100 91 84 92 99 100 100 100 100 100 100 100 100 100 100 100 94 99 90 90 100 100 100 100 100 100
100 100 100 100 100 100 100 100 100 100 100 94 96 100 93 92 93 92 96 100 100 100 100 100 100 100 100 100 97 97 100 100 100 100 100 100 100 100
100 100 100 100 100 100 100 100 99 100 93 100 89 86 90 99 100 100 95 83 100 100 100 100 100 100 100 100 100 100 100 100 100 100 100 100 100 100
100 100 100 100 100 100 100 100 100 100 97 100 100 86 95 94 90 96 100 77 94 93 100 100 100 100 100 100 100 100 100 100 100 100 100 100 100 100

GFSNE_prec_cloud_015.txt.gz
Cloud_Cover
100 100 100 100 62 59 86 70 11 3 5 98 100 100 100 63 20 1 12 100 100 100 100 100 100 100 100 100 100 100 100 100 100 100 100 100 100 100
100 100 96 50 80 91 66 75 57 5 4 5 99 100 100 100 60 6 31 100 100 100 100 100 100 100 100 100 100 100 100 100 100 100 100 100 100 100
100 100 100 100 81 76 88 79 42 22 5 4 6 100 100 73 88 61 8 100 100 100 100 100 100 100 100 100 100 100 100 100 100 100 100 100 100 100
100 100 100 100 100 99 72 14 6 5 5 5 5 33 100 100 100 85 92 100 100 100 100 100 100 100 100 100 100 100 100 100 100 100 100 100 100 100
100 100 100 100 100 100 100 99 76 5 5 5 33 47 97 100 100 83 96 94 100 100 100 100 100 100 100 100 100 100 100 100 100 100 100 100 100 100
100 100 100 90 41 9 5 3 5 5 5 5 5 47 70 96 100 100 63 100 100 100 100 100 100 100 100 100 100 100 100 100 100 100 100 100 100 100
100 32 4 3 5 5 36 46 88 98 100 99 100 100 100 99 83 87 42 31 100 100 100 100 100 100 66 100 100 100 100 100 100 100 100 100 100 100
5 5 5 5 5 5 5 5 5 92 100 100 100 100 100 100 99 97 61 6 65 100 100 100 100 100 100 85 86 100 100 100 100 100 100 100 100 100
5 7 15 50 83 98 84 99 89 86 93 100 100 97 79 46 28 85 99 63 20 94 93 63 86 90 100 69 99 78 100 100 100 100 100 100 100 100
5 6 84 69 73 73 100 100 67 45 78 85 97 99 75 66 86 68 46 66 20 30 83 82 96 45 86 100 89 62 84 100 100 100 100 100 100 100
11 18 74 97 61 82 100 100 100 100 92 100 98 88 78 74 67 92 100 100 98 68 5 19 78 97 50 98 100 100 100 100 100 100 100 100 100 100
82 90 100 99 77 79 100 100 100 100 99 100 100 100 96 85 85 100 98 100 100 90 5 12 6 31 66 74 38 81 100 99 94 100 100 100 100 100
90 84 81 90 100 99 100 90 100 100 100 100 100 98 90 86 100 81 100 100 100 100 22 11 8 79 24 50 100 76 88 97 92 100 100 100 100 100
99 100 65 91 92 97 76 75 100 100 100 100 100 100 100 95 100 100 100 100 96 98 88 78 73 20 42 100 98 74 76 85 96 95 32 38 100 100
100 100 100 85 96 100 98 100 100 100 100 100 100 100 100 100 100 100 100 97 100 99 96 83 89 75 75 72 99 100 64 41 99 86 45 22 66 100
100 100 100 87 88 100 100 100 100 100 100 100 100 100 100 100 100 100 100 100 100 100 100 100 100 99 96 84 60 36 95 78 72 91 77 63 8 69
100 100 97 84 100 95 93 87 89 87 100 97 84 97 98 100 99 100 100 100 99 100 100 100 100 100 99 100 100 96 93 94 88 41 29 74 31 52
100 100 94 98 100 100 100 93 66 99 92 100 100 97 94 89 98 67 86 100 100 100 100 100 100 100 100 100 91 94 100 96 85 76 66 64 59 57
100 100 100 100 100 100 100 100 100 100 99 100 100 99 100 100 100 98 95 100 100 100 100 100 100 100 100 89 100 100 100 100 98 97 76 76 70 87
100 100 100 100 100 100 98 100 100 100 100 100 100 98 96 100 97 100 96 99 99 94 100 100 98 100 100 100 100 100 100 98 94 86 93 89 96 100
100 100 100 100 98 100 100 100 100 100 100 100 100 100 99 94 93 100 100 100 100 100 100 100 100 100 100 100 100 100 100 100 100 100 76 68 80 99
100 100 100 100 100 100 100 100 100 100 100 100 100 100 94 100 100 100 98 99 91 74 100 100 100 100 100 95 100 100 100 100 100 100 100 65 69 100
100 100 100 100 100 100 100 100 100 100 100 100 100 100 92 90 85 90 83 72 79 84 71 92 100 100 100 100 100 100 100 100 100 93 85 99 96 100

GFSNE_prec_cloud_018.txt.gz
Cloud_Cover
100 100 100 100 100 100 100 100 99 5 0 0 0 0 4 6 27 32 6 52 6 0 0 5 66 97 100 100 100 100 100 100 100 100 100 100 100 100
100 100 100 100 100 100 100 100 83 9 5 0 0 3 4 4 8 88 87 35 99 8 0 4 5 15 100 100 100 100 100 100 100 100 100 100 100 100
100 100 100 100 100 100 100 99 18 5 4 1 0 1 11 16 6 69 100 82 9 8 0 0 48 90 74 100 100 100 100 100 100 100 100 100 100 100
100 100 100 100 100 100 100 62 5 5 5 5 5 5 4 38 33 87 100 100 42 5 1 0 0 81 100 100 100 100 100 100 100 100 100 100 100 100
100 100 100 100 95 98 67 34 19 5 5 5 5 5 5 5 85 100 100 100 100 75 96 4 0 0 30 100 100 100 100 100 100 100 100 100 100 100
100 100 100 100 91 61 22 9 5 5 8 65 56 62 77 25 20 76 100 100 100 62 87 88 4 0 3 23 100 100 100 100 100 100 100 100 100 100
98 86 42 5 5 6 76 94 95 99 96 100 96 98 86 100 92 5 22 100 100 100 44 60 5 3 5 5 96 100 100 100 100 100 100 100 100 100
100 100 12 5 5 5 49 78 85 100 100 100 100 95 100 100 100 91 13 5 64 100 100 80 12 5 5 22 98 100 100 100 100 100 100 100 100 100
97 10 5 5 68 85 79 94 100 100 100 100 100 100 99 98 96 100 67 20 11 39 69 100 84 100 97 77 100 100 100 100 100 100 100 100 100 100
12 5 18 56 100 100 100 100 94 73 83 99 91 79 69 77 100 96 76 63 53 7 5 94 100 93 31 38 96 100 100 100 100 100 100 97 100 100
14 91 94 100 100 100 97 99 100 100 100 69 79 85 89 84 100 100 100 100 100 72 5 48 66 69 96 5 56 100 100 100 100 100 100 100 100 100
100 100 88 97 99 100 100 100 100 100 100 100 100 99 99 89 90 100 100 100 100 100 67 44 9 5 7 73 5 70 100 100 100 92 99 100 100 100
100 99 92 99 100 88 100 90 88 99 100 100 100 100 100 100 83 97 100 100 100 92 100 84 93 71 72 5 5 48 100 100 100 94 95 100 100 100
100 98 99 100 92 100 82 100 100 100 100 100 100 100 87 100 100 100 98 100 93 100 100 93 91 94 100 5 69 11 91 100 100 100 87 28 39 95
100 100 98 100 100 52 100 98 100 100 99 99 86 100 100 100 100 100 100 100 100 100 100 100 99 100 98 90 63 70 97 100 100 77 75 55 6 54
100 100 100 100 86 82 93 95 100 100 100 100 99 99 83 97 100 100 100 100 100 100 100 100 100 100 100 94 100 100 83 93 79 86 99 19 5 7
100 100 100 100 100 84 90 92 100 87 96 100 100 100 90 70 79 85 94 98 100 100 100 100 100 100 100 100 99 96 100 100 100 100 86 15 5 29
100 100 100 100 84 94 100 100 89 100 100 100 100 100 91 84 88 94 94 100 97 100 100 100 100 100 100 100 100 100 100 69 99 98 97 81 9 5
100 100 100 100 100 100 100 100 100 100 100 100 100 99 97 86 74 77 86 88 95 100 100 100 100 100 100 100 100 100 100 100 100 100 97 98 22 66
100 100 100 100 100 100 100 99 87 95 95 100 100 97 100 94 98 99 95 97 96 97 99 100 100 100 100 100 100 100 100 100 100 100 95 96 98 100
100 100 100 100 100 100 100 98 100 100 100 100 100 100 99 100 100 94 91 100 98 92 93 94 100 100 100 100 100 100 100 100 100 100 99 100 100 49
100 100 100 100 100 100 100 99 88 89 97 99 100 100 80 89 92 95 96 96 96 87 99 100 100 99 100 100 100 100 100 100 100 100 100 100 100 84
100 100 100 100 100 100 100 100 100 98 98 100 99 100 100 88 86 82 73 67 87 82 94 85 99 100 100 99 100 100 100 100 100 100 100 100 100 100

GFSNE_prec_cloud_021.txt.gz
Cloud_Cover
100 100 100 100 100 100 100 100 100 83 61 75 26 45 38 5 4 4 4 0 0 0 0 5 5 73 96 3 0 14 0 100 100 100 100 100 100 100
100 100 100 100 100 100 100 100 100 98 37 100 100 100 100 44 5 1 3 2 0 0 0 0 4 5 32 95 4 0 5 46 100 100 100 100 100 100
100 100 100 100 100 100 100 100 100 100 96 100 100 100 95 6 4 4 5 5 5 0 0 0 0 2 5 75 32 4 0 4 45 100 100 100 100 100
100 100 100 100 100 78 20 16 7 5 43 49 5 5 6 5 5 5 5 5 2 5 0 0 0 0 0 0 34 11 5 0 43 83 100 100 100 100
100 100 100 100 100 100 100 100 98 89 32 24 5 5 5 5 5 5 5 6 5 5 5 4 0 0 0 0 0 50 5 5 65 65 98 100 100 100
100 100 100 100 100 100 100 100 60 26 51 80 68 45 92 92 96 89 79 99 88 24 6 30 5 3 0 0 0 0 5 5 5 83 13 100 100 100
100 100 50 76 100 100 100 76 100 100 100 100 100 99 100 100 100 97 100 100 98 100 96 84 93 40 6 5 1 0 0 1 5 76 88 77 100 100
100 100 100 91 49 60 74 96 100 100 100 100 100 100 100 100 100 100 100 100 94 99 92 85 92 97 81 50 6 5 5 96 100 100 95 100 100 100
54 39 88 94 91 96 100 100 100 100 100 100 100 98 100 100 100 100 100 100 100 99 100 96 97 90 100 95 100 16 5 5 62 100 100 65 100 100
83 99 98 99 100 100 100 100 100 100 100 100 100 99 100 100 100 100 100 100 100 100 100 100 90 88 98 90 25 21 5 8 14 16 80 42 100 100
99 100 100 100 98 96 100 100 100 99 100 71 82 98 96 65 67 100 100 100 100 100 100 100 100 95 95 70 14 5 5 6 100 13 91 78 100 100
100 100 98 88 83 100 100 100 94 97 100 100 100 98 100 100 100 100 100 100 100 100 98 100 100 100 100 63 23 11 18 4 58 100 7 100 100 100
100 100 100 97 98 100 86 95 98 99 98 100 100 100 100 100 100 97 96 100 100 100 100 100 100 100 100 100 98 53 25 64 33 97 100 100 100 100
99 100 100 92 89 81 84 100 99 88 100 100 100 100 100 100 100 100 100 97 100 98 100 100 100 100 100 100 100 100 93 98 83 100 100 100 100 100
100 100 100 100 100 76 96 97 94 100 100 100 100 100 100 100 100 100 100 100 100 100 100 100 100 100 100 100 100 100 100 84 99 100 100 94 100 87
100 100 100 100 100 85 95 99 100 100 100 100 100 89 100 100 100 100 100 100 100 100 100 100 100 100 100 100 100 100 100 99 100 100 100 95 100 100
100 100 100 100 100 100 100 100 100 100 100 100 100 100 100 100 100 100 100 100 100 100 100 100 100 100 100 100 100 100 100 100 94 96 100 80 72 100
100 100 100 100 100 100 100 100 100 100 100 100 100 100 100 100 100 100 96 97 100 100 98 100 100 100 100 100 99 100 100 100 100 97 100 99 54 97
100 100 100 100 100 100 100 100 100 100 100 100 100 100 100 100 100 100 100 100 100 100 100 100 100 100 100 100 100 100 100 100 100 100 100 100 100 100
100 100 100 100 100 100 100 100 100 100 100 100 100 100 100 100 100 97 100 100 100 96 100 100 99 100 100 100 100 100 100 100 100 100 100 100 99 83
100 100 100 100 100 100 100 100 100 100 100 100 100 100 100 100 100 100 99 99 100 100 100 99 90 100 100 100 100 100 100 100 100 100 100 100 92 95
100 100 100 100 100 100 100 100 100 100 100 100 100 100 100 100 100 100 100 98 98 100 100 100 95 100 100 100 100 100 100 100 100 100 100 100 100 100
100 100 100 100 100 100 100 100 100 100 100 100 100 100 100 100 100 100 100 100 100 100 100 100 100 97 100 100 100 100 100 100 100 100 100 100 100 100

GFSNE_prec_cloud_024.txt.gz
Cloud_Cover
100 99 100 100 100 98 100 100 100 100 100 100 100 100 98 94 95 82 61 13 5 0 0 0 2 5 5 5 5 3 0 4 91 100 100 100 100 100
94 98 100 100 100 100 100 100 100 100 100 100 100 100 100 78 48 5 22 54 3 0 0 0 0 0 1 0 5 85 16 5 0 36 100 85 100 100
100 100 100 100 100 100 100 100 100 100 100 99 100 100 100 88 94 79 8 5 5 5 5 0 0 0 0 0 0 0 11 5 4 0 0 8 100 100
100 100 100 100 100 100 100 100 100 100 100 99 100 100 100 100 100 100 85 15 8 2 4 0 0 0 0 0 0 4 0 5 5 2 0 1 27 100
100 100 100 100 100 100 100 100 100 85 60 35 46 37 5 5 5 5 5 5 5 5 5 0 3 0 0 0 0 0 0 2 5 5 0 0 2 33
91 86 98 97 100 100 100 100 100 99 75 99 76 36 80 83 93 96 92 97 97 100 79 36 6 11 4 0 0 3 3 0 4 5 5 0 12 57
100 100 88 48 100 90 82 92 84 73 91 100 100 96 98 100 100 100 100 100 99 100 100 100 100 97 69 10 2 0 0 0 0 5 5 3 32 96
23 67 99 100 100 100 76 78 85 100 100 100 100 100 100 100 100 100 100 100 100 100 100 100 100 100 100 100 100 85 5 5 4 91 79 39 100 100
100 100 88 66 85 100 100 100 96 100 100 100 100 98 100 100 100 100 100 100 100 100 100 93 100 99 98 100 100 97 78 5 5 4 1 98 100 100
100 100 100 98 100 100 99 100 100 100 100 100 100 100 100 100 92 100 100 100 100 99 100 99 99 79 99 99 100 100 86 69 5 5 5 80 100 100
99 100 100 100 100 100 100 100 100 100 100 100 98 99 92 86 97 100 100 100 100 99 100 100 100 92 98 99 90 74 91 5 5 5 5 5 75 100
100 100 100 100 97 100 100 100 100 95 100 100 99 100 98 79 100 94 100 100 100 100 100 100 100 100 100 48 49 94 73 10 5 5 5 25 61 100
100 100 100 100 100 100 99 100 100 98 94 100 100 100 100 100 100 100 100 100 100 100 100 100 100 100 100 100 100 100 99 84 80 22 5 45 76 100
100 100 100 100 100 100 100 100 100 100 100 100 100 100 100 100 100 100 100 100 100 100 100 100 100 100 100 100 100 95 94 88 47 100 97 78 97 100
100 100 100 100 100 100 100 100 100 100 100 100 100 100 100 100 84 98 100 100 100 100 100 100 100 100 100 100 100 100 100 100 99 96 100 100 96 99
100 100 100 100 100 100 100 100 100 100 97 100 100 100 100 100 100 100 100 100 100 100 100 100 100 96 100 100 100 100 100 100 100 100 100 100 100 100
100 100 100 100 100 100 100 100 100 100 100 100 100 100 100 100 100 100 100 100 100 100 100 100 100 100 96 100 100 100 100 100 100 100 100 100 100 100
100 100 100 100 100 100 100 100 100 100 100 100 100 100 100 100 100 100 100 97 99 100 100 100 100 100 100 100 100 100 100 100 100 91 83 89 99 88
100 100 100 100 100 100 100 100 100 100 100 100 100 100 100 100 100 100 100 100 100 100 100 100 100 100 100 100 100 100 100 100 100 100 92 100 98 100
100 100 100 100 100 100 100 100 100 100 100 100 100 100 100 100 100 100 100 100 100 100 100 100 100 100 100 100 100 100 100 100 99 100 94 96 99 100
100 100 100 100 100 100 100 100 100 100 100 100 100 100 100 100 100 100 100 100 100 100 100 100 100 60 100 100 100 100 100 100 100 100 100 100 100 100
100 100 100 100 100 100 100 100 100 100 100 100 100 100 100 100 100 100 100 100 100 100 100 100 100 100 100 100 100 100 100 100 100 100 100 100 100 100
100 100 100 100 100 100 100 100 100 100 100 100 100 100 100 100 100 100 100 100 100 100 100 100 100 100 100 100 98 100 100 100 100 100 100 100 100 100

GFSNE_prec_cloud_027.txt.gz
Cloud_Cover
100 100 100 100 100 100 100 100 100 100 99 100 100 100 100 100 90 100 88 90 88 100 97 36 5 4 0 2 34 11 5 77 100 100 100 100 100 100
100 100 100 100 100 100 100 100 100 100 94 100 100 100 100 100 89 100 9 99 94 100 100 100 31 5 2 0 0 4 6 5 8 97 100 100 100 100
100 100 100 100 100 100 100 100 100 100 100 100 100 100 100 100 100 88 5 18 95 100 100 100 99 56 5 0 0 0 1 5 5 2 67 100 100 100
99 100 100 100 100 100 100 100 100 100 100 100 100 100 100 100 80 80 83 68 95 90 100 100 100 100 11 3 0 0 0 0 5 5 5 0 80 100
5 5 8 5 35 98 100 100 100 100 100 88 100 100 100 100 100 25 66 95 50 84 62 14 8 81 93 4 1 0 0 0 0 2 5 5 2 1
5 5 5 46 62 73 73 86 100 100 100 100 100 100 94 87 96 92 54 64 37 87 100 99 98 32 5 5 0 0 0 0 0 0 0 0 2 4
5 5 31 86 22 24 35 92 82 69 98 100 100 100 100 100 45 62 92 74 20 53 42 30 73 100 100 93 78 4 0 0 0 0 0 0 0 4
29 60 90 100 100 100 86 25 100 100 100 100 98 100 100 100 100 100 100 89 93 99 78 52 66 23 26 80 99 100 42 5 5 5 0 0 0 0
100 100 100 100 100 100 98 98 99 97 83 83 98 93 99 100 100 100 95 100 100 98 100 93 100 95 99 79 38 5 39 37 26 5 5 4 2 3
100 100 100 85 91 73 96 100 100 100 100 91 93 82 98 98 100 96 100 100 95 93 99 98 99 89 100 100 100 31 5 5 5 5 5 5 4 1
100 100 100 93 100 100 100 100 96 96 100 99 88 65 59 46 43 92 91 99 99 92 99 100 97 100 100 95 94 82 5 5 5 5 5 5 5 1
100 100 100 100 94 92 99 100 84 100 100 100 89 87 97 99 100 99 97 100 94 95 100 100 95 100 84 100 68 7 15 11 5 5 5 5 5 5
100 100 100 100 100 100 98 100 100 100 100 100 100 100 99 99 100 100 100 100 100 97 100 100 96 100 100 100 65 99 100 99 88 50 10 5 5 5
100 99 100 100 100 100 100 100 100 100 100 100 100 100 100 100 100 100 100 100 100 99 100 100 100 100 100 100 100 95 100 100 100 100 8 68 5 5
100 100 100 100 100 100 100 100 100 100 100 100 100 98 100 100 100 100 100 100 100 100 100 100 98 100 100 100 100 100 100 100 100 91 92 70 100 95
100 100 100 100 100 100 100 100 100 100 100 100 100 100 99 100 100 98 75 99 100 87 95 78 77 98 94 99 100 100 100 100 100 95 100 100 100 100
100 100 100 100 100 100 100 100 100 100 100 100 100 100 100 93 100 100 88 87 91 99 100 100 92 95 100 100 88 98 100 100 100 100 100 100 100 100
100 100 100 100 100 100 100 100 100 100 100 100 100 100 100 100 94 93 100 97 98 91 75 89 100 99 100 100 100 100 100 100 100 100 100 99 100 100
100 100 100 100 100 100 100 100 100 100 100 100 100 100 100 100 100 100 96 86 95 100 100 98 100 100 100 100 100 100 100 100 100 100 100 100 100 100
100 100 100 100 100 100 100 100 100 100 100 100 100 100 100 100 100 100 100 100 100 78 100 99 92 92 100 100 100 100 100 100 100 100 100 100 100 100
100 100 100 100 100 100 100 100 100 100 100 100 100 100 100 100 100 100 100 100 100 100 100 94 79 22 69 99 100 100 100 100 100 100 100 100 100 100
100 100 100 100 100 100 100 100 100 100 100 100 100 100 100 100 100 100 100 100 100 100 100 100 92 90 98 95 100 95 100 100 100 100 100 100 100 100
100 100 100 100 100 100 100 100 100 100 100 100 100 100 100 100 100 100 100 100 100 100 100 100 100 100 98 95 94 91 93 100 100 100 100 100 100 100

GFSNE_prec_cloud_030.txt.gz
Cloud_Cover
100 100 100 100 100 83 100 100 100 90 28 97 100 97 100 100 100 100 100 100 100 100 100 5 5 4 4 30 38 21 2 0 27 5 5 98 100 100
69 32 76 100 100 100 100 90 100 100 98 100 87 96 100 100 100 100 100 77 98 76 86 5 60 5 53 5 5 17 5 5 2 3 5 5 92 100
95 88 89 93 66 95 100 100 78 99 98 100 97 100 100 90 100 100 100 100 99 100 34 5 5 5 8 83 64 88 19 5 5 0 0 4 5 82
100 90 94 78 98 17 25 76 92 98 68 33 95 100 100 100 100 100 100 100 91 97 86 99 56 5 5 37 76 82 6 5 5 0 0 0 5 5
3 0 4 5 24 70 59 57 71 23 49 69 83 79 6 94 100 100 100 94 81 64 58 35 16 5 4 3 4 82 5 5 1 2 0 0 0 5
0 0 0 4 5 41 72 40 5 22 17 5 37 100 100 66 8 58 73 99 93 93 62 69 97 98 88 21 37 16 4 6 7 2 0 0 0 0
0 0 1 5 12 84 100 76 30 16 45 6 94 82 30 9 79 27 40 5 5 10 12 5 18 31 16 5 28 8 5 4 5 5 0 0 0 0
0 1 5 27 25 100 97 76 90 12 49 71 60 100 100 100 100 66 8 5 5 5 5 5 11 5 5 5 5 5 5 4 5 5 5 5 1 0
12 64 10 10 66 98 79 94 80 95 99 66 37 42 76 93 56 10 27 89 86 40 72 49 5 5 5 5 5 5 5 5 5 9 100 24 5 5
59 7 14 5 5 42 55 17 30 89 91 100 97 69 97 64 100 100 99 95 100 99 100 87 10 18 50 36 19 5 21 17 10 5 4 5 5 5
5 22 100 98 93 92 97 70 10 13 82 100 99 99 89 79 88 83 80 92 84 26 56 100 58 64 62 9 5 5 5 5 5 5 0 0 0 3
6 15 88 100 100 99 91 97 83 70 76 100 100 100 99 98 100 95 63 100 99 100 64 99 47 71 47 5 28 12 16 10 10 4 1 0 0 5
48 76 81 100 100 100 99 95 90 100 100 100 100 100 100 100 100 99 92 100 100 92 100 100 49 30 99 69 42 99 100 80 100 100 37 6 5 6
100 100 100 100 100 100 100 100 100 100 100 100 100 100 100 100 100 99 100 98 100 100 100 100 100 100 98 100 98 100 100 99 92 15 62 75 5 5
93 100 100 100 100 100 100 100 100 100 100 100 100 100 100 100 100 96 100 90 92 80 99 88 96 100 100 72 99 100 100 100 98 92 86 98 37 68
100 100 100 100 100 100 100 100 100 100 100 100 100 100 100 100 98 99 90 22 8 77 75 52 30 79 100 74 12 93 100 100 100 100 100 78 66 100
100 100 100 100 100 100 100 100 100 100 100 100 100 100 99 90 100 96 83 94 100 32 28 75 64 80 10 44 72 86 100 100 100 99 95 100 100 100
100 100 100 100 100 100 100 100 100 100 100 100 99 100 99 84 82 89 89 39 77 90 74 28 99 100 95 92 98 100 100 100 98 91 100 100 98 96
100 100 100 100 100 100 100 100 100 100 100 100 99 87 100 82 92 95 93 88 5 76 87 100 97 81 100 100 99 100 100 100 98 95 100 100 100 68
100 100 100 100 100 100 100 100 100 100 100 100 100 99 100 100 100 100 100 100 100 99 99 82 24 13 44 85 87 100 100 100 100 100 75 100 100 93
100 100 100 100 100 100 100 100 100 100 100 100 100 100 100 100 100 100 100 100 100 100 100 98 48 37 91 88 100 100 100 100 100 100 100 100 100 96
100 100 100 100 100 100 100 100 100 100 100 100 100 100 100 100 100 100 100 100 100 100 100 99 94 99 91 81 98 86 94 95 100 100 100 100 100 100
99 100 100 100 100 100 100 100 100 100 100 100 100 100 100 100 100 100 100 100 100 64 72 100 100 86 71 86 97 98 88 78 100 100 100 100 100 100

GFSNE_prec_cloud_033.txt.gz
Cloud_Cover
5 5 5 6 82 93 100 98 100 100 18 19 20 43 100 45 100 100 100 100 100 100 100 100 100 100 96 61 5 5 0 0 0 1 80 100 100 100
5 5 16 27 85 100 100 100 92 100 100 10 82 76 100 100 83 99 100 100 100 100 100 100 100 100 100 97 53 5 5 0 1 0 0 33 100 100
81 85 13 74 66 51 27 68 81 75 60 5 5 48 100 100 100 100 100 100 100 100 100 100 100 100 100 100 59 52 5 5 5 4 0 5 35 100
28 90 38 99 3 0 2 39 55 39 5 5 5 5 52 100 40 58 100 65 100 100 100 100 99 100 100 100 100 71 51 5 5 5 5 0 5 34
99 100 86 6 0 0 0 1 1 3 5 5 9 5 5 25 91 48 100 100 96 88 92 36 100 100 86 89 100 100 8 7 5 5 5 5 4 4
4 3 1 0 0 1 5 5 30 25 5 0 6 21 5 5 17 70 54 89 36 100 100 100 89 5 13 4 70 100 100 52 22 6 5 5 4 3
5 4 1 4 48 6 100 40 20 57 5 5 5 5 49 50 41 40 16 12 7 64 100 58 5 15 5 54 21 15 100 98 8 4 5 19 5 5
5 5 5 5 5 69 99 82 100 100 99 100 100 80 46 8 48 6 5 5 33 8 5 31 6 5 24 28 8 88 54 67 92 9 5 5 5 5
5 5 0 4 5 5 18 76 97 99 100 98 99 15 6 5 89 93 41 14 6 5 5 6 6 5 1 0 0 5 5 4 4 5 5 61 5 5
5 5 5 5 5 26 57 39 5 5 74 89 92 17 99 64 100 83 73 72 94 95 21 45 5 5 5 5 5 5 5 5 5 5 5 40 5 5
5 5 12 5 5 92 89 70 50 6 76 98 100 99 92 82 100 100 100 97 99 70 5 78 5 5 5 5 4 1 2 4 0 1 0 1 1 0
8 90 100 82 84 99 100 99 94 52 5 8 83 81 70 100 100 90 84 100 96 100 100 87 9 24 92 6 5 5 5 5 5 6 6 3 5 5
100 80 94 98 95 100 99 100 91 90 99 93 100 100 100 100 100 100 100 100 100 98 100 100 66 57 82 44 37 20 5 5 5 39 100 100 76 74
75 98 100 100 100 100 100 100 100 100 100 100 100 100 100 100 100 100 97 100 100 100 98 100 100 90 61 82 96 100 98 75 13 5 20 84 96 90
53 100 100 100 100 100 100 100 100 100 100 100 100 100 100 100 100 100 100 87 82 84 100 100 100 100 100 100 93 30 96 68 98 80 51 99 92 67
80 100 100 100 100 100 100 100 100 100 100 100 100 100 100 100 100 97 79 82 74 60 95 100 72 99 100 100 100 100 38 76 89 86 68 91 95 91
86 100 100 100 100 100 100 100 100 100 100 100 100 100 100 100 100 91 57 85 95 99 42 5 77 82 99 100 100 100 96 18 74 100 94 100 100 100
70 100 100 100 100 100 100 100 100 100 100 100 100 100 100 89 99 76 70 78 83 81 88 98 100 100 100 98 100 98 100 100 100 100 100 100 100 97
66 100 100 100 100 100 100 100 100 100 100 100 100 100 98 99 89 71 91 81 65 87 100 93 97 89 99 92 94 60 97 100 100 100 100 100 100 100
43 98 100 100 100 100 100 100 100 100 100 100 100 100 100 100 88 72 69 89 91 74 94 82 48 8 85 100 99 86 70 100 100 100 100 100 100 100
25 84 100 100 100 100 100 100 100 100 100 100 100 100 100 100 100 97 77 100 70 60 49 5 63 65 84 100 100 89 66 88 100 94 97 96 100 100
54 60 98 100 100 100 100 100 100 100 100 100 100 100 100 100 100 100 86 88 87 68 29 87 38 62 51 76 93 98 94 100 44 70 94 91 96 100
15 24 81 100 100 100 100 100 100 100 100 100 100 100 100 100 100 100 100 78 82 68 88 100 44 70 78 77 91 55 21 67 74 67 79 100 100 100

GFSNE_prec_cloud_036.txt.gz
Cloud_Cover
5 13 58 69 10 56 78 93 100 100 98 78 5 5 5 4 6 5 73 100 100 100 100 100 100 100 100 100 100 78 21 5 3 0 0 4 82 100
100 100 97 67 58 67 99 100 86 90 60 8 5 5 5 5 16 94 98 100 100 100 100 100 100 100 100 100 100 100 100 100 5 2 0 0 8 100
55 68 100 37 100 91 73 42 28 1 16 5 17 5 5 5 22 79 100 100 100 100 100 100 100 100 100 100 100 100 100 100 95 7 0 0 1 69
6 90 100 100 64 35 5 5 0 0 1 1 5 2 5 5 5 5 6 100 100 100 100 100 100 100 100 100 100 100 100 100 99 100 45 5 4 2
100 100 79 28 0 0 2 5 1 1 4 66 17 5 5 2 8 86 11 13 92 100 100 100 100 100 100 100 100 100 100 97 5 100 100 90 12 5
5 5 5 3 5 15 59 76 44 16 7 5 5 5 5 1 2 50 89 5 6 99 100 100 100 100 100 100 100 100 100 56 15 64 100 100 100 73
5 5 1 2 5 58 100 100 100 88 66 72 91 89 12 5 5 2 7 100 11 6 5 100 100 31 84 100 100 100 100 32 34 5 72 100 100 100
5 4 4 3 1 5 5 5 98 100 91 86 95 87 5 5 5 5 5 9 81 75 5 16 77 80 90 100 100 99 99 38 5 5 5 63 100 100
5 5 5 5 5 5 5 5 20 28 84 99 99 69 18 5 5 9 8 24 11 100 48 78 11 5 51 11 98 8 61 16 5 2 0 3 26 100
5 5 5 5 5 34 77 91 99 86 58 48 73 14 5 5 76 23 23 71 66 92 90 95 17 5 5 5 0 1 3 55 18 3 0 0 5 45
5 5 22 50 75 100 100 92 67 100 100 75 42 45 96 97 88 94 94 100 98 99 84 96 52 5 6 6 5 5 0 0 2 0 0 0 0 5
62 16 12 100 100 100 100 100 100 100 98 87 22 5 5 5 6 12 84 23 93 83 98 67 19 92 65 6 5 5 2 0 0 0 0 0 0 5
54 31 23 100 100 100 100 100 100 100 100 99 100 100 96 88 100 100 89 95 100 94 99 100 43 22 93 7 5 6 12 10 7 7 5 5 5 5
64 66 94 100 100 100 100 100 100 100 100 100 100 100 100 100 100 99 98 100 100 100 100 99 97 34 76 89 64 8 5 5 19 7 5 6 5 5
78 100 100 100 100 100 100 100 100 100 100 100 100 100 100 100 100 100 100 100 94 100 100 100 100 100 100 100 98 99 94 18 25 21 41 35 35 99
73 38 60 100 100 100 100 100 100 100 100 100 100 100 100 100 100 100 100 92 75 60 20 82 83 100 100 100 100 100 100 99 9 71 99 95 44 97
76 53 64 99 100 100 100 100 100 100 100 100 100 100 100 100 100 97 84 49 70 100 100 28 43 99 100 100 94 59 87 96 29 5 79 51 100 100
36 80 65 100 100 100 100 100 100 100 100 100 100 99 98 98 96 93 58 84 94 82 96 90 96 100 97 86 100 94 93 100 71 51 41 96 100 100
78 84 83 73 100 100 100 100 100 100 100 100 100 100 100 98 96 91 46 30 79 98 100 98 44 64 64 77 95 89 99 32 83 98 81 100 100 100
57 76 98 100 90 100 100 100 100 100 100 100 100 100 100 100 87 92 87 84 90 81 72 78 82 84 94 91 95 71 79 92 100 88 100 100 100 100
56 66 75 89 66 91 100 100 100 100 100 100 100 100 100 100 100 100 88 96 88 54 36 8 72 81 41 68 98 77 65 90 100 100 95 99 98 97
67 60 67 72 73 91 92 100 100 100 100 100 100 100 100 100 100 100 100 98 65 91 72 65 48 53 87 76 99 98 99 100 75 29 52 88 82 99
63 54 63 66 69 96 100 96 100 100 100 100 100 100 100 100 100 100 100 95 68 68 68 100 79 90 78 81 95 72 72 91 93 82 25 72 100 89

GFSNE_prec_cloud_039.txt.gz
Cloud_Cover
5 90 100 96 100 94 97 100 100 91 29 5 5 5 5 5 5 5 1 0 5 10 100 100 100 100 100 100 100 100 100 99 15 5 5 0 5 5
5 6 10 24 48 89 49 100 100 99 50 5 0 0 0 0 3 5 3 5 1 0 89 100 100 100 100 100 100 100 100 100 100 84 5 5 2 5
2 5 8 100 92 94 40 49 8 44 5 2 2 0 0 0 0 0 0 1 5 5 6 100 100 100 100 100 100 100 100 100 100 99 83 40 5 0
19 91 76 51 28 31 8 5 5 5 5 5 5 5 38 6 4 0 0 0 0 0 9 100 100 100 100 100 100 100 100 100 100 100 100 100 65 5
4 5 5 5 27 5 5 5 6 64 96 94 17 19 69 23 5 2 0 0 5 2 0 100 100 100 100 100 100 100 100 100 100 100 100 100 100 100
5 5 5 5 5 5 5 5 98 100 100 100 99 100 99 16 5 5 3 5 4 21 5 40 100 100 100 99 92 98 100 100 100 100 100 100 100 100
5 5 5 5 5 34 29 5 20 74 99 100 87 93 92 77 17 5 5 5 5 6 26 5 95 100 84 100 98 100 98 100 100 100 100 66 100 88
5 5 5 5 5 21 5 5 37 84 94 99 99 95 83 5 8 5 5 13 56 5 5 7 5 100 100 99 100 100 100 100 100 100 100 96 100 98
24 5 5 28 5 5 5 5 10 8 58 100 100 100 96 8 6 17 5 18 59 5 12 44 16 7 98 100 79 92 94 100 100 100 100 100 100 100
5 5 5 21 17 100 100 98 80 96 91 91 100 99 86 100 93 38 16 100 99 81 50 100 52 7 5 32 6 5 5 1 70 100 100 100 100 76
5 5 83 73 86 100 88 100 100 100 86 74 72 96 91 88 94 100 100 100 94 31 48 95 78 7 9 5 5 5 94 6 0 1 18 98 99 16
7 5 5 99 100 100 100 100 100 100 100 100 100 87 96 8 5 9 5 84 97 23 85 96 11 83 60 11 12 15 18 6 5 5 3 4 4 4
63 79 6 91 100 100 100 100 100 100 100 100 100 100 100 93 86 66 72 83 98 93 100 99 58 99 100 96 8 19 15 11 10 10 5 5 3 5
100 83 93 99 100 100 100 100 100 100 100 100 100 100 100 100 100 100 100 100 100 100 100 100 76 31 98 82 64 38 99 29 17 8 46 10 5 5
76 36 92 64 100 100 100 100 100 100 100 100 100 100 100 100 100 100 100 100 100 100 100 100 100 100 100 100 100 100 100 97 17 66 81 73 33 96
5 5 5 37 100 100 100 100 100 100 100 100 100 100 100 100 100 100 100 100 100 100 100 88 99 100 100 100 100 100 100 97 33 40 99 81 95 67
24 48 28 26 84 100 100 100 100 100 100 100 100 100 100 100 100 100 100 100 100 100 98 98 95 100 100 100 100 100 100 100 96 84 86 59 23 72
33 91 98 90 82 100 100 100 100 100 100 100 100 100 100 100 100 100 100 100 98 89 79 68 76 91 96 91 100 100 100 100 81 78 88 100 99 20
59 75 100 100 93 97 100 100 100 100 100 100 100 100 100 100 100 100 93 94 100 95 97 98 86 62 67 87 70 98 100 88 83 81 79 96 100 77
60 75 100 100 89 92 99 100 100 100 100 100 100 100 100 100 94 93 97 97 95 97 100 99 98 100 100 88 93 73 100 100 100 100 93 76 60 72
55 60 76 100 82 75 92 100 100 100 100 100 100 100 100 100 100 97 89 77 78 70 70 57 54 99 96 97 91 82 90 100 100 100 100 96 93 99
66 61 30 74 73 75 90 87 100 100 100 100 100 100 100 100 100 99 94 97 97 97 96 97 76 40 75 90 94 99 100 100 100 42 56 100 90 87
58 17 61 67 65 67 73 65 100 100 100 100 100 100 100 100 100 100 100 100 100 100 100 100 91 97 100 87 84 88 86 88 89 34 43 8 95 100

GFSNE_prec_cloud_042.txt.gz
Cloud_Cover
13 100 54 27 61 44 41 100 100 95 8 6 2 0 3 2 1 4 5 5 0 0 0 0 5 48 100 100 100 100 100 100 100 65 10 5 5 5
29 71 5 5 10 76 75 99 100 78 64 2 0 0 3 2 4 3 0 0 0 0 0 0 0 5 96 100 100 100 100 100 100 99 74 54 5 5
99 77 52 26 10 31 6 5 5 14 5 3 3 3 4 5 5 12 5 4 0 0 0 0 0 4 20 100 100 100 100 100 100 100 100 100 12 5
100 32 3 5 5 5 5 5 5 5 47 78 51 16 5 4 81 30 4 0 0 0 0 0 0 3 40 30 100 100 100 100 100 100 100 100 100 72
5 5 5 3 2 5 5 5 5 10 60 91 78 63 6 69 89 90 7 1 0 0 0 0 5 3 32 100 100 100 100 100 100 100 100 100 100 100
5 5 5 5 5 7 30 46 36 5 38 47 39 75 58 5 98 93 73 5 0 0 0 0 0 5 5 97 96 100 100 98 100 100 100 100 100 100
5 5 5 14 93 100 100 99 100 73 99 99 100 96 94 92 79 99 93 26 5 5 2 0 0 0 5 33 100 100 100 95 100 100 100 100 100 100
29 5 5 5 5 100 98 91 99 100 100 100 100 100 92 64 8 95 100 77 39 5 5 5 5 5 4 6 100 100 100 100 100 100 100 100 100 100
5 5 5 40 25 23 5 49 35 96 100 100 100 100 98 78 93 98 48 54 60 5 30 15 5 5 5 5 26 100 100 100 100 100 100 100 100 100
5 5 48 36 9 100 95 79 100 100 100 100 100 100 92 72 100 83 86 74 27 93 100 93 5 5 5 5 5 5 6 23 95 100 100 100 100 100
5 5 80 77 85 100 100 86 85 100 100 100 100 100 100 100 100 100 98 100 100 66 18 96 14 5 5 5 5 5 30 6 100 33 92 62 100 100
5 5 6 98 100 100 98 100 100 100 100 100 100 100 100 100 100 94 77 100 100 100 44 53 52 88 8 36 26 5 5 88 100 19 19 2 93 100
36 77 54 93 100 100 100 95 100 100 100 100 100 100 100 100 100 100 98 75 88 90 97 98 100 100 70 23 16 5 5 5 17 10 5 4 2 4
12 74 22 100 100 100 100 100 100 100 100 100 100 100 100 100 100 100 100 100 100 100 100 100 100 100 98 74 17 94 84 74 12 5 5 5 5 5
6 27 21 13 11 56 98 100 100 100 100 100 100 100 100 100 100 100 100 100 100 100 100 100 100 100 100 86 99 100 100 59 48 6 33 37 6 43
5 5 5 5 5 32 100 100 100 100 100 100 100 100 100 100 100 100 100 100 100 100 100 100 100 100 100 97 100 100 100 81 24 77 81 100 98 100
22 36 16 14 5 40 63 98 100 100 100 100 100 100 100 100 100 100 100 100 100 100 100 100 100 100 100 98 97 100 100 99 100 93 85 100 20 5
5 82 100 100 91 90 100 100 100 100 100 100 100 100 100 100 100 100 100 99 97 100 100 100 100 100 100 97 98 100 100 100 94 92 100 100 99 59
5 45 100 100 99 57 95 97 100 100 100 100 100 100 100 100 100 99 87 86 87 98 100 100 100 99 72 75 82 67 77 86 100 40 67 100 97 100
5 60 78 100 99 57 96 92 83 100 100 100 100 100 100 100 100 96 93 83 79 88 75 77 91 88 100 93 98 90 97 100 100 100 100 100 25 15
5 5 47 77 77 38 93 97 92 88 100 100 100 100 100 100 98 100 98 73 52 39 51 79 80 81 93 100 97 83 90 100 100 100 100 95 75 82
54 5 5 9 68 40 94 100 62 64 96 100 100 100 100 100 100 99 98 95 87 77 78 86 96 96 97 99 85 99 98 100 100 96 81 93 90 85
66 16 47 47 50 61 7 71 50 81 51 100 100 100 100 100 100 100 100 100 100 100 100 100 100 100 100 92 92 100 99 100 100 70 76 68 80 89

GFSNE_prec_cloud_045.txt.gz
Cloud_Cover
15 95 9 5 14 6 9 29 76 53 6 98 71 89 54 6 5 4 0 4 2 4 0 0 0 0 0 0 50 100 100 100 100 100 100 100 100 62
60 5 8 11 5 5 5 5 15 32 5 5 5 5 5 5 5 5 1 5 0 0 0 0 0 0 0 0 4 85 100 100 100 100 100 100 92 100
70 77 24 4 5 5 5 5 5 5 5 5 5 15 57 59 68 26 5 5 5 4 0 0 0 0 0 0 1 5 99 100 100 100 97 91 99 100
77 5 5 5 5 5 5 5 5 6 40 52 40 56 100 100 100 100 95 100 99 25 1 0 4 3 1 13 5 5 100 100 100 99 100 100 100 68
53 5 5 5 5 17 60 76 100 100 100 100 99 100 100 100 100 100 100 100 100 26 4 0 0 4 5 13 100 26 86 100 100 100 100 100 100 100
23 5 5 43 74 91 99 100 100 100 100 100 100 100 100 100 100 100 100 100 100 100 40 1 0 0 5 5 11 27 89 85 100 100 100 100 100 100
15 5 8 40 58 56 68 100 100 100 100 100 100 100 100 100 100 100 100 100 100 100 99 5 5 4 0 0 5 5 89 100 100 100 100 100 100 100
4 0 0 5 6 88 98 100 100 100 100 100 100 100 100 100 100 100 100 100 100 100 100 98 72 53 6 5 5 6 23 100 100 100 100 100 100 100
1 0 3 12 83 100 100 99 91 87 100 100 100 100 100 100 100 100 100 100 100 100 100 100 100 90 28 5 0 30 84 96 100 100 100 100 100 100
5 5 41 99 100 100 100 100 100 100 100 100 100 100 100 100 100 100 100 100 100 99 100 99 98 98 94 68 5 4 6 89 100 100 100 100 100 89
32 78 99 100 100 100 100 100 100 100 100 100 100 94 100 100 100 100 100 100 100 100 100 100 88 100 99 5 5 5 5 15 100 70 100 100 97 54
99 96 100 98 100 100 100 100 100 100 100 100 100 100 96 100 100 100 100 100 100 100 98 100 100 98 95 60 18 5 5 5 5 68 96 99 97 99
99 96 100 100 100 100 100 100 100 100 100 100 100 100 100 100 100 100 100 100 100 100 100 96 100 100 100 100 97 79 10 12 5 5 5 16 62 69
96 100 93 72 90 85 100 100 100 100 100 100 100 100 100 100 100 100 100 100 100 100 100 100 100 100 100 100 100 93 77 42 44 55 59 69 90 92
73 12 5 5 5 31 71 84 100 100 100 100 100 100 100 100 100 100 100 100 100 100 100 100 100 100 100 100 100 96 98 96 80 100 85 18 8 9
22 5 4 5 5 5 34 78 84 91 100 100 100 100 100 100 100 100 100 100 100 100 100 100 100 100 100 100 100 100 98 98 99 100 99 99 92 100
5 5 3 5 5 5 5 49 88 77 100 100 100 100 100 100 100 100 100 100 100 100 100 100 100 100 100 100 100 100 100 100 92 96 90 95 85 86
5 5 5 5 5 5 5 5 95 86 100 100 100 100 100 100 100 100 100 100 100 100 100 100 100 100 100 100 100 100 100 100 99 98 100 100 100 100
44 6 65 5 5 5 5 5 28 100 100 100 100 100 100 100 100 100 100 100 100 100 98 91 97 98 100 100 91 48 100 100 96 95 99 100 100 100
37 55 48 66 5 5 1 5 5 22 90 100 100 100 100 100 100 100 100 100 98 95 99 99 94 96 100 100 100 100 57 100 100 98 92 88 60 19
100 94 73 8 5 5 5 5 5 5 52 96 100 100 100 100 100 100 100 100 100 80 99 99 99 91 87 95 100 100 100 57 100 100 100 100 93 100
98 100 76 51 65 5 5 14 18 5 5 22 73 100 100 100 100 100 100 100 100 100 100 100 99 100 100 100 100 100 100 100 100 99 43 78 100 100
95 92 100 69 69 72 5 5 6 5 5 5 8 75 87 100 100 100 100 95 99 100 100 100 100 100 100 100 100 100 98 97 99 100 100 5 85 92

GFSNE_prec_cloud_048.txt.gz
Cloud_Cover
100 100 82 99 100 100 100 100 100 88 61 78 91 90 89 100 100 55 46 5 5 0 0 0 0 0 0 0 0 0 11 99 97 91 77 6 81 89
83 92 97 99 100 100 100 100 100 100 84 35 40 14 61 96 100 99 100 28 5 2 1 0 0 0 0 0 0 0 0 18 54 100 100 84 71 97
96 87 99 100 100 100 100 100 100 100 100 66 99 89 87 100 100 100 100 100 100 92 11 14 2 0 0 0 0 0 0 19 74 100 100 99 100 91
100 100 100 100 100 100 100 100 100 100 100 100 99 100 100 100 100 100 100 100 100 100 100 88 4 0 0 0 0 5 5 12 88 100 100 17 100 100
100 100 100 89 88 100 100 100 100 100 100 100 100 100 100 100 100 100 100 100 100 100 26 7 8 1 0 0 0 1 5 5 98 100 100 100 100 100
99 100 74 74 95 68 40 58 76 100 100 100 100 100 100 100 100 100 100 100 100 100 100 53 46 2 0 0 0 0 4 5 80 100 100 100 100 95
64 28 5 5 0 6 6 30 98 100 100 100 100 100 100 100 100 100 100 100 100 100 93 100 100 100 94 42 2 0 2 5 84 100 100 100 100 100
5 5 5 5 5 5 80 82 50 100 100 100 100 100 100 100 100 100 100 100 100 100 100 100 99 86 100 100 100 20 5 5 21 100 100 100 100 100
5 5 5 12 84 100 100 67 90 98 100 100 100 100 100 100 100 100 100 100 100 100 100 100 100 100 100 100 33 4 5 5 6 98 100 99 100 100
79 82 81 81 100 72 100 100 100 100 100 100 100 100 100 100 100 100 100 100 100 100 100 100 100 99 100 100 54 4 3 5 5 36 100 100 100 100
100 100 97 96 100 42 100 100 100 100 100 100 99 91 100 96 93 100 100 100 100 100 100 100 99 95 99 100 41 22 0 4 11 72 96 100 98 100
100 100 100 62 16 98 100 100 100 100 100 100 100 100 100 100 88 100 100 100 100 100 100 100 100 100 100 99 96 94 38 4 5 5 92 95 90 76
99 98 100 53 5 90 100 100 97 100 100 100 100 100 100 100 100 100 100 100 100 100 100 100 100 100 100 100 100 59 66 64 6 6 5 5 5 45
96 100 76 6 5 16 91 48 66 100 100 100 100 100 100 100 100 100 100 100 100 100 99 94 90 100 100 100 100 98 90 100 100 99 100 44 5 94
100 38 5 5 5 10 56 20 39 98 90 100 100 100 100 100 100 100 100 100 100 100 97 99 100 100 98 100 100 100 100 95 99 100 100 100 91 69
100 92 27 5 5 5 78 90 73 39 83 100 100 100 100 100 100 100 100 100 100 100 100 100 100 100 100 100 100 100 100 100 57 88 100 95 100 100
10 98 100 95 5 5 5 46 43 6 84 99 100 100 100 100 100 100 100 100 100 100 100 100 100 100 100 100 100 100 100 100 100 95 81 100 100 90
68 100 100 100 100 5 5 5 5 5 45 99 100 100 100 100 100 100 100 100 100 100 100 100 100 100 100 100 100 100 100 100 100 74 98 100 96 100
94 100 100 100 100 71 5 5 5 5 5 85 100 100 100 100 100 100 100 100 100 100 100 100 100 100 100 100 100 100 100 93 98 100 100 100 100 100
83 100 100 100 99 50 5 5 6 12 5 5 80 100 100 100 100 100 100 100 100 100 100 100 100 100 100 100 99 89 12 98 100 100 100 99 77 59
100 100 100 100 100 100 82 89 97 100 11 7 64 93 100 100 100 100 100 100 100 100 100 100 100 89 98 100 97 97 99 82 93 100 100 100 100 100
100 100 100 100 100 100 100 100 95 99 74 5 8 94 97 100 100 100 100 100 100 100 100 100 100 100 100 100 100 88 100 100 83 27 27 69 100 100
100 100 100 100 100 100 100 98 93 88 76 6 5 56 76 93 100 100 100 100 100 100 100 100 100 100 100 100 100 100 93 96 100 90 82 5 5 5

GFSNE_prec_cloud_051.txt.gz
Cloud_Cover
90 40 96 94 91 100 92 97 98 26 38 52 14 66 83 100 98 50 9 4 0 0 0 0 0 5 5 5 0 0 5 0 0 7 100 98 87 66
97 56 99 100 81 68 82 100 93 96 36 48 12 76 50 95 99 99 5 69 5 5 5 5 5 5 3 0 0 1 0 0 0 2 100 100 100 99
52 89 95 100 99 100 100 86 100 100 38 11 11 91 97 52 86 67 24 49 11 5 48 91 74 100 65 5 0 0 0 0 0 2 100 90 100 100
100 100 87 100 100 100 100 100 100 100 72 58 38 90 86 65 71 65 53 100 83 96 80 95 90 81 14 5 0 0 0 0 2 5 6 99 100 100
93 96 98 100 100 83 52 12 16 5 10 47 47 98 96 99 64 93 94 100 100 98 25 26 38 26 19 6 0 0 0 0 0 5 5 86 100 100
94 100 100 71 18 5 4 5 13 67 82 89 94 100 100 100 96 99 100 100 100 100 87 87 90 92 42 4 2 0 0 0 0 5 9 99 100 100
100 94 54 37 4 0 2 5 98 100 100 100 100 100 100 100 100 100 100 100 100 100 42 87 80 82 96 86 51 5 0 0 0 5 25 100 100 100
99 51 60 43 97 5 39 69 68 44 100 100 100 100 100 100 100 100 100 100 95 100 100 98 100 100 76 30 100 100 90 0 0 0 58 100 100 100
100 98 91 87 89 61 55 21 91 100 100 99 96 99 100 100 100 100 86 100 100 98 100 45 100 100 100 85 84 98 6 4 4 5 30 100 100 100
100 100 100 98 100 5 12 47 100 100 100 100 100 100 100 100 94 89 74 55 86 97 100 99 100 99 100 39 2 5 5 0 0 5 5 100 100 100
100 100 98 99 92 5 5 85 100 100 100 100 100 62 64 65 59 92 92 100 100 100 100 100 99 94 100 24 17 16 5 1 0 4 5 42 100 100
98 99 92 5 5 5 5 98 100 100 85 99 100 100 100 100 100 96 99 100 99 100 100 100 100 100 100 100 9 4 5 5 0 0 5 6 91 100
99 98 96 54 5 5 9 95 94 29 40 95 100 100 100 100 100 85 64 74 95 92 100 100 100 100 100 100 100 93 8 76 5 2 2 5 5 84
99 98 96 12 5 5 10 31 5 27 100 100 100 100 100 100 99 98 92 71 68 91 100 100 100 100 100 87 100 100 100 93 73 68 25 2 3 12
98 75 6 12 5 9 19 5 7 100 97 100 100 100 100 100 99 98 100 100 100 100 100 94 91 89 100 96 100 100 100 98 27 45 49 76 54 6
100 98 41 10 30 48 86 100 100 100 86 98 100 100 100 100 100 100 100 100 100 100 100 100 100 100 100 78 88 95 100 100 96 96 64 65 61 58
63 58 100 100 100 100 100 100 100 100 100 15 98 100 100 100 100 100 100 100 100 100 100 100 100 100 100 100 100 100 100 100 100 100 51 26 58 88
72 100 100 100 100 100 100 100 100 100 86 29 85 100 100 100 100 100 100 100 100 100 100 100 100 100 100 100 100 100 100 100 100 99 94 99 100 99
96 99 100 100 100 100 100 100 100 100 24 100 92 100 100 100 100 100 100 100 100 100 100 100 100 100 100 100 100 100 100 100 100 100 100 93 96 92
100 99 100 100 100 100 100 100 100 100 100 100 100 100 100 100 100 100 100 100 100 99 100 100 100 100 100 100 100 100 100 100 100 100 100 100 100 98
100 100 100 100 100 100 100 100 100 100 85 97 100 100 100 100 100 100 100 100 99 100 100 100 100 99 100 100 100 100 100 19 58 96 100 100 100 100
100 100 100 100 100 100 100 100 100 100 100 100 100 100 100 100 100 100 100 100 100 100 100 100 99 100 100 100 100 82 100 90 8 5 6 38 89 100
100 100 100 100 100 100 100 99 100 100 100 100 100 100 100 100 100 100 100 100 100 100 100 100 100 100 100 100 100 100 92 83 74 88 79 19 5 11

GFSNE_prec_cloud_054.txt.gz
Cloud_Cover
31 100 100 93 100 93 82 99 93 5 2 0 0 0 0 3 5 5 5 5 0 0 0 0 0 0 1 5 50 3 4 3 5 5 5 5 5 100
85 88 62 70 96 100 83 53 11 36 4 5 0 0 0 1 2 2 2 5 5 2 0 0 2 18 0 28 53 7 0 0 0 5 5 5 5 100
17 10 12 44 84 89 94 23 40 40 94 5 5 5 5 5 4 0 0 0 0 0 0 4 5 5 4 19 100 61 5 0 0 0 5 5 5 100
5 57 88 100 97 100 45 40 69 6 5 5 1 0 3 4 5 2 0 0 0 0 0 4 3 5 5 32 18 66 1 0 0 0 0 5 22 25
86 59 97 70 14 79 6 4 0 0 0 3 1 0 5 5 5 3 4 5 5 5 7 83 75 97 100 100 100 59 5 0 0 0 0 1 16 30
69 100 100 99 21 5 5 0 0 1 3 5 4 5 5 4 5 5 71 47 11 5 5 5 5 5 77 97 79 82 4 0 0 0 0 3 98 100
100 100 100 47 5 2 4 2 5 5 5 5 5 5 8 67 63 39 72 42 5 7 6 5 5 5 29 26 86 100 100 19 5 0 0 3 61 100
100 89 5 5 58 64 5 5 5 5 5 88 97 100 77 82 100 100 94 38 5 48 87 4 5 5 53 100 100 98 100 80 5 5 0 1 43 95
72 5 5 5 5 5 5 4 0 0 37 99 99 100 100 88 75 51 28 31 15 5 24 22 83 5 65 39 100 99 66 55 87 5 5 8 100 100
5 5 14 39 5 5 0 0 0 4 11 90 100 92 60 21 88 74 47 91 24 14 100 99 54 5 5 5 56 91 96 4 5 5 0 5 62 100
77 61 70 99 5 5 5 5 5 4 25 80 17 6 5 72 97 99 84 100 74 66 90 100 67 16 23 40 69 6 5 4 2 1 0 5 11 100
100 98 99 100 15 5 5 5 5 8 5 1 5 5 50 72 100 100 100 100 100 23 100 26 85 100 93 100 100 100 38 5 5 5 1 5 5 87
100 100 98 100 83 5 5 5 5 5 5 11 23 5 93 100 98 95 60 29 55 38 16 98 70 80 100 100 100 100 100 96 75 38 2 5 5 38
100 100 100 100 10 5 3 0 5 5 29 83 5 8 58 97 100 100 100 100 100 91 100 100 100 87 100 100 100 100 100 100 94 9 5 4 5 23
87 100 100 100 19 5 5 5 5 5 91 5 5 5 20 81 100 93 34 100 15 100 100 100 100 83 100 100 100 100 100 100 100 100 98 6 11 18
97 100 100 100 28 54 7 48 84 90 91 19 37 5 5 45 54 95 80 98 100 100 100 100 100 100 96 85 100 100 97 100 98 12 5 5 20 55
99 100 100 100 99 92 82 97 72 74 70 55 5 5 5 6 83 96 100 100 100 100 100 100 100 100 100 95 97 92 99 100 99 80 76 67 35 54
78 35 100 100 97 100 89 78 92 81 62 5 39 28 67 47 76 100 100 99 100 100 100 100 100 100 100 100 100 90 100 100 100 98 100 100 99 100
96 25 46 65 99 100 100 86 88 58 5 49 95 14 99 6 95 100 100 93 64 93 100 100 100 100 100 100 100 100 100 100 100 100 100 100 100 100
89 77 82 100 100 100 100 100 95 8 34 99 14 46 100 80 23 91 100 100 93 71 93 100 100 100 100 100 100 100 100 100 100 100 100 100 100 100
87 97 100 100 100 100 100 100 100 79 57 62 9 86 96 100 7 61 100 100 100 92 71 73 100 100 100 99 100 100 100 100 100 100 100 100 100 100
100 94 83 100 100 100 100 100 100 99 90 95 100 27 90 72 16 97 46 100 100 100 98 90 100 100 100 100 98 100 100 100 100 100 100 96 92 100
100 100 100 100 100 100 95 85 96 100 69 93 69 25 86 6 84 22 100 53 100 100 100 100 100 100 100 100 100 90 93 100 94 99 98 100 89 100

GFSNE_prec_cloud_057.txt.gz
Cloud_Cover
5 5 68 11 29 89 100 97 98 38 5 0 0 0 5 5 0 0 0 0 0 0 2 5 4 0 3 5 5 5 90 100 91 5 5 5 5 5
7 5 5 94 100 62 6 87 100 98 21 5 5 5 5 5 3 2 3 0 0 0 0 0 0 2 0 0 0 2 5 23 98 13 5 5 5 5
90 97 6 8 81 94 99 100 83 100 61 5 1 0 4 2 0 0 0 0 0 0 0 0 0 0 0 3 1 0 0 72 87 5 5 5 5 5
60 31 81 14 97 93 78 79 94 10 5 5 0 0 0 0 0 0 0 0 0 0 0 0 5 69 29 14 5 12 5 100 76 0 0 3 1 0
80 47 5 48 33 5 5 5 5 0 0 0 0 0 0 0 0 0 0 0 0 2 5 5 0 0 0 14 95 94 100 80 5 0 0 0 0 0
81 5 45 50 5 5 5 5 0 0 1 5 1 3 5 1 5 5 4 4 5 1 3 5 4 1 0 0 3 88 76 50 54 5 5 4 0 0
88 42 13 54 5 5 5 5 5 5 5 2 5 29 55 10 48 29 100 55 4 5 4 0 4 0 0 1 3 5 16 93 85 97 5 5 0 2
100 99 5 5 5 5 19 71 5 5 0 5 5 97 44 85 100 73 37 5 8 58 5 5 4 5 5 3 4 5 96 100 100 100 36 30 0 4
92 55 18 5 82 60 72 40 5 0 0 5 5 36 99 93 51 24 5 67 96 9 67 75 46 5 5 5 0 5 5 43 100 100 100 98 3 88
6 5 5 35 100 100 100 100 5 0 0 4 100 77 42 5 88 100 87 92 62 26 100 96 7 5 5 5 5 5 5 5 99 79 31 62 4 7
7 5 5 15 100 87 100 43 4 2 3 5 1 4 5 9 100 100 96 100 64 14 60 13 12 6 5 5 31 5 5 79 5 5 5 4 0 4
5 5 6 82 83 99 100 32 6 4 5 5 5 2 5 5 70 99 100 100 98 94 5 93 6 45 74 63 99 100 100 85 47 5 100 15 0 5
5 5 5 96 88 100 100 44 5 5 5 5 5 5 5 5 5 27 70 100 100 98 27 100 100 84 100 100 100 100 100 100 71 5 22 46 0 25
5 5 60 17 47 100 70 14 5 5 5 5 5 5 5 5 53 8 26 41 42 94 48 100 100 100 100 99 100 100 100 100 100 81 91 15 4 18
7 94 42 92 67 99 100 53 5 6 5 69 37 5 5 5 35 65 53 70 59 96 99 100 100 100 100 98 100 100 100 100 100 100 96 29 7 29
54 98 16 34 48 71 100 100 100 77 42 29 67 5 5 5 6 96 80 94 98 59 100 100 100 100 100 100 100 100 100 100 100 95 99 93 49 50
93 93 84 87 49 97 100 100 100 99 46 12 5 30 5 5 5 95 80 99 100 99 100 98 100 100 100 100 100 100 96 71 100 91 29 22 37 29
97 84 72 63 69 94 100 100 100 100 97 63 5 5 5 27 5 11 91 95 89 38 99 100 100 100 100 98 55 99 100 100 100 100 99 98 100 100
100 97 79 10 88 84 100 100 100 100 100 100 98 44 18 6 9 5 96 100 100 59 92 100 100 100 100 98 100 100 100 100 100 99 100 100 100 100
92 100 100 64 65 79 67 95 100 100 94 84 71 21 50 84 43 11 12 100 100 100 46 47 100 100 100 100 100 100 100 100 100 100 100 100 100 100
100 97 100 82 39 95 88 100 100 91 62 55 39 49 64 77 6 5 10 75 100 100 98 53 100 100 100 100 100 100 100 100 100 100 100 100 100 100
100 100 100 99 89 93 100 100 100 99 94 77 37 76 100 23 5 6 50 91 92 100 100 100 100 100 100 100 100 100 100 100 100 100 100 100 100 100
100 100 100 100 98 92 100 98 100 92 80 66 49 46 64 5 5 46 82 94 9 95 100 100 100 99 100 100 100 100 100 100 100 100 100 100 100 100

GFSNE_prec_cloud_060.txt.gz
Cloud_Cover
5 5 5 5 5 9 7 70 72 52 5 5 6 9 5 3 5 5 5 5 0 0 0 0 0 0 5 5 5 5 5 5 32 6 100 99 100 96
13 9 5 77 98 100 99 100 98 97 90 90 31 6 5 3 2 2 2 1 0 0 0 0 0 2 5 5 5 5 5 5 18 90 74 100 100 100
50 66 93 100 100 100 100 100 100 88 86 6 19 1 0 0 0 0 0 0 0 0 0 0 1 16 26 72 68 5 5 5 5 26 100 99 93 97
100 100 100 100 100 45 5 5 5 6 5 0 0 0 0 0 0 0 0 0 0 0 4 5 5 9 8 20 5 5 5 5 5 5 5 5 5 6
100 100 100 100 36 5 5 5 5 5 5 5 1 0 0 0 0 0 0 1 2 5 5 4 2 0 0 4 5 2 0 5 5 22 33 5 4 4
100 100 100 34 5 6 14 15 14 7 48 42 5 0 3 5 5 5 47 5 5 0 0 1 0 2 5 4 0 0 0 0 1 15 5 5 0 1
97 96 100 99 91 81 54 10 68 100 97 5 5 5 8 12 20 85 58 5 5 0 0 2 4 0 0 4 4 5 3 1 2 45 82 10 5 5
48 93 100 100 100 5 5 97 100 100 96 12 5 5 5 93 84 5 5 83 96 5 11 5 6 5 5 5 5 5 5 5 5 5 100 99 99 51
68 68 70 39 37 15 87 100 100 53 5 5 7 10 95 10 8 21 57 100 99 17 99 88 5 5 5 5 5 5 5 5 5 11 100 100 96 100
88 66 92 95 16 43 92 99 100 78 50 5 5 8 5 28 80 97 100 96 86 8 32 96 6 5 5 3 5 5 5 5 5 5 55 53 5 5
81 100 94 74 5 82 77 100 100 96 46 5 5 5 5 5 9 82 41 100 93 65 5 99 6 8 5 5 5 25 38 5 50 6 5 5 5 5
100 72 35 4 5 5 54 100 100 100 84 5 5 5 3 3 0 5 86 100 100 90 5 94 59 92 65 6 23 5 24 41 86 10 100 5 5 5
37 11 93 6 5 5 80 100 100 100 100 77 38 5 5 5 5 5 5 73 92 97 21 96 74 88 100 71 18 5 95 100 100 100 49 100 12 5
46 5 36 98 5 16 98 100 100 100 100 62 37 5 5 5 5 5 5 37 5 61 64 42 100 100 100 40 49 32 100 100 100 94 38 46 62 87
96 34 76 98 98 6 46 83 17 89 87 67 78 5 5 5 5 5 5 56 57 5 5 76 96 97 100 100 92 98 100 100 100 96 99 47 23 36
100 38 89 100 98 7 21 46 5 69 72 99 100 49 9 6 5 5 5 94 72 77 5 65 94 68 88 100 99 100 100 100 100 100 100 94 56 38
100 100 99 100 95 100 64 84 56 100 96 100 100 64 61 10 5 5 6 20 65 76 84 6 100 73 99 91 100 88 100 100 100 100 100 30 17 52
95 98 100 100 100 100 100 100 66 100 83 92 72 89 100 57 58 10 5 20 50 71 62 52 99 84 68 100 100 96 100 100 100 100 100 92 97 100
100 90 100 100 98 92 100 100 100 90 84 99 72 100 85 54 58 9 5 5 18 53 88 45 97 100 100 100 100 67 100 83 99 100 100 99 100 100
97 96 100 100 100 86 100 97 98 100 77 81 91 100 70 66 64 36 14 76 47 53 99 73 75 100 100 100 100 98 100 100 100 100 100 100 100 100
100 100 100 100 100 100 100 100 100 100 98 98 99 99 61 62 65 7 38 31 42 27 89 98 82 100 100 100 100 100 100 100 100 100 100 100 100 100
100 100 100 100 100 100 100 100 100 96 76 89 100 99 89 67 55 13 50 74 14 46 62 92 100 100 100 100 100 100 100 100 100 100 100 100 100 100
100 100 100 100 100 100 100 100 100 100 100 100 100 60 82 63 23 54 67 79 56 5 17 93 100 100 100 100 100 100 100 100 100 100 100 100 100 100

GFSNE_prec_cloud_063.txt.gz
Cloud_Cover
8 7 27 64 100 100 87 100 100 68 42 92 100 70 93 98 19 5 4 0 0 0 0 0 0 5 5 5 5 5 5 5 5 37 56 5 29 67
48 29 77 82 94 97 100 100 100 99 90 47 100 89 38 5 2 0 0 0 0 0 0 0 0 2 5 5 11 6 30 26 63 85 100 87 36 50
79 67 94 100 100 100 100 89 87 70 44 6 5 4 0 0 0 0 0 0 0 0 3 2 5 7 20 30 19 5 5 10 40 100 100 100 100 100
100 100 100 100 100 100 52 5 5 5 16 5 5 3 5 5 2 0 0 0 2 1 5 5 5 5 5 5 4 4 5 5 5 5 6 12 16 98
100 100 100 89 13 56 67 20 74 100 94 5 5 5 5 25 5 3 2 5 5 7 5 0 4 2 5 5 5 5 5 5 0 0 2 4 1 4
100 54 5 58 65 89 100 100 94 100 29 5 5 12 53 53 5 5 35 5 4 3 0 2 3 1 5 5 5 3 2 3 4 5 4 0 0 0
5 5 5 5 74 100 100 100 100 11 11 12 90 89 66 5 14 56 43 5 5 4 4 3 5 5 5 5 5 5 5 5 5 5 5 5 3 5
5 5 70 8 19 91 64 80 5 11 77 71 100 82 100 7 38 8 72 100 96 8 18 33 5 5 5 5 5 5 5 5 5 5 5 5 4 5
5 20 37 64 5 8 71 42 53 86 40 62 92 93 84 10 32 77 92 100 100 24 72 98 5 5 5 5 5 5 5 5 10 5 5 5 5 5
5 100 100 98 78 84 75 28 64 56 37 43 17 5 5 5 74 73 94 50 48 5 5 96 5 5 5 5 5 5 5 5 5 6 5 5 4 5
9 96 100 100 75 18 5 8 17 83 27 32 5 5 5 5 5 14 6 81 94 52 5 93 10 5 5 5 5 5 5 5 5 16 6 5 5 5
12 77 100 97 87 72 5 5 12 88 85 75 46 5 5 5 5 5 31 85 97 69 37 32 6 76 56 5 7 5 5 5 5 58 85 93 64 64
20 6 20 35 100 100 57 5 5 42 89 98 64 20 65 5 5 5 5 51 99 96 40 99 72 75 100 78 8 6 5 20 100 95 97 100 100 84
49 54 93 100 99 91 99 23 5 5 81 95 92 100 78 29 5 5 5 5 5 69 98 100 98 91 100 84 89 11 21 40 100 100 100 79 85 100
86 98 100 100 100 100 96 100 30 66 64 100 99 90 48 55 31 6 5 5 5 5 8 86 51 100 92 100 99 91 100 98 100 100 100 100 100 100
93 100 100 100 100 100 100 100 100 100 60 99 36 56 12 7 83 16 5 5 57 74 35 70 90 100 100 100 99 100 92 100 100 100 100 100 100 100
41 77 100 100 100 100 100 100 100 98 84 83 72 57 25 79 81 7 11 21 67 42 100 77 20 100 70 100 98 98 99 100 100 100 100 100 86 100
87 85 97 100 100 100 100 100 100 100 81 85 63 47 76 97 72 49 35 74 79 6 48 66 88 5 92 61 100 93 100 100 100 100 100 100 97 99
100 82 81 97 100 100 100 100 100 100 100 100 79 85 100 100 74 64 59 61 52 5 14 68 68 6 100 96 98 100 100 100 100 100 100 100 96 100
100 95 93 64 100 100 100 100 100 100 100 100 100 99 100 100 72 68 58 73 66 5 5 15 76 98 100 96 100 100 98 100 100 100 100 100 100 98
100 100 100 100 100 100 100 100 100 100 100 100 100 100 100 100 76 67 45 40 56 8 5 46 79 100 100 100 100 100 100 100 100 100 100 100 99 73
100 100 97 100 100 100 100 100 100 100 100 100 100 100 100 98 72 67 66 68 61 71 32 10 86 97 100 100 100 100 100 100 100 100 100 100 99 86
100 100 100 100 100 100 100 100 100 100 100 100 100 100 100 100 75 43 61 56 67 18 21 5 83 99 100 100 100 100 100 100 100 100 100 100 100 100

GFSNE_prec_cloud_066.txt.gz
Cloud_Cover
6 11 79 63 82 96 91 74 92 94 100 5 98 100 100 100 99 64 2 0 0 0 0 0 0 5 5 5 5 5 5 5 5 5 8 73 5 48
55 64 84 71 80 72 90 84 22 51 84 5 5 5 5 5 5 0 0 5 5 5 5 2 5 5 5 5 9 55 82 93 93 99 100 100 94 100
75 65 92 72 100 54 5 5 6 100 100 6 5 5 5 3 0 3 5 5 5 5 5 5 5 27 42 95 95 100 100 100 100 100 100 100 100 100
100 97 100 35 5 5 5 5 7 56 54 5 5 5 4 5 4 5 23 52 5 5 5 58 36 6 5 5 5 5 5 5 5 5 5 8 8 43
100 70 5 5 5 5 46 95 60 100 79 49 5 5 4 5 8 50 7 5 5 2 0 4 5 5 5 5 5 5 5 5 5 5 5 4 3 5
92 5 5 5 5 5 69 90 100 100 93 17 8 5 5 15 5 8 52 5 5 2 0 2 4 5 5 5 5 5 5 5 5 5 5 5 5 5
5 5 5 5 39 76 79 80 97 86 53 62 5 5 23 49 18 24 42 5 5 4 5 4 5 5 5 5 5 5 5 5 5 5 8 5 5 5
5 5 5 5 26 60 13 5 5 77 74 12 5 5 26 60 5 33 63 99 94 5 5 6 5 5 5 5 5 5 5 5 5 5 5 5 5 5
5 5 5 5 85 70 28 6 22 75 76 82 24 47 49 65 69 97 96 100 96 13 15 47 5 5 5 5 5 5 5 5 5 5 5 5 5 5
5 5 5 14 74 95 79 45 5 15 50 100 53 5 5 13 64 71 8 45 5 5 5 88 5 5 5 3 5 5 5 5 5 5 5 5 5 5
5 5 5 5 56 93 81 5 5 5 53 72 12 5 34 32 22 25 5 10 85 31 5 96 36 5 5 3 5 5 5 5 5 5 5 5 5 20
100 11 5 5 5 99 84 26 63 37 35 56 5 5 5 5 5 5 5 45 83 44 5 5 11 89 42 5 5 5 5 5 5 5 62 96 66 100
100 66 5 36 25 77 79 80 71 88 18 7 11 81 68 5 5 5 5 5 57 69 4 89 95 99 100 63 5 5 5 5 5 75 99 96 98 99
100 100 60 100 100 100 100 82 100 74 100 83 90 99 36 19 69 46 58 5 5 27 5 75 100 95 100 99 92 5 5 5 5 76 79 96 65 21
32 100 55 80 100 100 98 100 100 87 98 100 100 100 74 99 100 90 81 5 5 5 5 5 62 80 100 100 100 85 92 77 9 87 92 97 100 92
63 100 100 100 92 69 100 100 100 100 86 100 100 100 100 100 89 80 22 27 66 23 4 5 5 95 90 89 91 96 100 99 80 100 100 98 97 84
100 88 100 100 100 88 81 100 100 100 100 100 100 100 100 93 32 93 69 63 49 24 5 5 5 68 36 47 87 92 97 100 100 100 100 98 99 100
100 100 100 100 100 100 83 87 100 100 100 100 100 100 100 96 84 90 49 49 49 11 5 26 19 68 46 6 44 99 92 100 100 100 100 100 100 89
100 100 100 100 100 100 84 99 100 100 100 100 100 100 100 100 100 79 55 61 42 50 32 8 17 81 100 98 95 95 100 100 100 100 100 100 100 99
100 100 100 100 100 100 96 100 100 100 100 100 100 100 100 100 100 83 52 73 45 12 9 37 32 96 100 92 100 100 100 100 100 100 100 100 100 99
100 99 90 100 100 100 90 100 100 100 100 100 100 100 100 100 100 94 55 74 50 20 33 17 7 80 90 100 100 100 99 100 100 100 100 100 100 86
100 100 98 100 100 98 99 100 100 100 100 100 100 100 100 100 100 96 64 62 58 12 6 5 16 10 86 100 100 95 100 100 100 100 100 100 100 100
100 100 100 100 100 100 100 100 100 100 100 100 100 100 100 100 100 89 78 86 75 55 7 5 15 5 69 100 99 100 100 100 100 100 100 100 100 100

GFSNE_prec_cloud_069.txt.gz
Cloud_Cover
29 5 5 5 5 5 5 5 10 5 4 40 68 15 6 5 5 2 0 0 0 0 0 0 0 4 5 5 5 5 5 5 7 10 29 86 77 88
5 5 5 5 5 5 4 5 5 13 20 16 97 79 64 5 5 4 0 0 0 2 2 5 5 5 5 5 11 27 62 71 98 99 100 100 100 100
5 5 5 5 5 5 5 5 5 47 58 77 93 39 5 5 5 4 0 0 5 5 5 5 5 5 42 96 98 72 70 83 96 99 100 100 100 100
5 5 5 5 5 5 5 5 74 90 97 94 100 66 5 5 5 4 1 5 5 5 5 5 5 5 6 10 8 5 5 5 6 10 92 100 100 100
5 5 5 5 5 5 5 46 93 76 94 83 100 68 6 5 5 5 4 5 5 6 4 0 5 5 5 5 5 42 35 6 5 5 5 5 14 51
5 5 5 5 5 5 36 85 66 100 100 100 95 97 90 42 5 5 5 34 36 14 0 3 4 5 5 5 5 5 5 5 12 42 51 5 5 5
21 5 5 5 5 5 30 81 100 100 100 98 100 100 100 100 58 5 5 16 78 5 5 45 5 5 5 5 5 5 5 5 5 5 5 5 5 10
5 5 5 5 5 5 5 88 96 94 99 100 100 100 98 100 60 5 5 61 11 28 5 5 5 5 11 5 3 5 5 5 5 5 5 5 5 6
6 5 5 5 5 5 5 80 8 54 19 97 86 96 96 99 8 8 79 95 73 6 5 63 5 7 33 5 5 5 5 5 5 5 5 5 5 5
5 5 5 5 5 5 7 84 85 27 5 29 33 98 99 45 5 82 100 98 98 90 51 95 26 33 33 5 1 5 5 5 5 5 5 5 5 5
5 6 5 5 5 5 11 90 81 68 24 5 9 56 5 5 6 95 100 100 100 100 84 99 64 42 45 5 5 5 5 5 5 5 5 5 5 5
5 5 5 5 5 6 77 94 100 54 89 47 59 91 77 26 31 59 100 100 100 97 86 98 79 98 85 58 87 70 59 49 8 5 5 5 19 52
87 5 5 32 5 13 84 50 74 100 93 84 100 100 100 74 100 100 100 98 100 100 98 80 100 100 100 97 96 71 95 88 99 81 90 52 27 100
98 90 100 60 52 83 93 10 27 99 100 100 97 100 100 100 100 100 98 63 90 96 83 95 100 100 100 94 86 96 99 90 93 100 100 98 90 98
82 70 100 98 100 100 94 78 100 100 100 100 99 99 100 97 92 93 81 86 96 98 12 27 99 100 100 100 100 99 99 89 100 86 99 100 100 100
35 86 100 100 100 100 100 100 92 88 99 100 100 100 100 100 100 99 100 100 100 98 92 16 22 81 100 100 100 100 100 100 98 98 100 94 100 100
100 100 100 100 92 100 100 100 100 100 100 100 100 100 100 100 100 99 100 100 100 100 86 42 51 27 66 10 65 100 100 100 100 100 97 100 98 100
100 100 100 100 100 100 100 100 100 100 99 100 100 100 100 100 100 100 100 100 100 100 100 55 12 29 98 84 31 100 100 100 100 100 100 100 100 96
97 100 100 100 100 100 100 100 100 100 100 100 100 100 100 100 100 100 100 100 100 100 100 78 5 93 100 100 98 30 100 100 100 99 99 100 100 100
98 98 100 100 100 100 100 100 100 100 100 100 100 100 100 100 100 100 100 100 100 100 75 7 5 42 94 100 100 99 89 88 100 100 100 96 100 100
100 100 100 100 100 100 100 100 99 100 100 100 100 100 100 100 100 100 99 100 99 99 71 5 5 5 22 100 100 99 100 100 100 100 100 100 100 100
100 100 100 100 100 100 100 100 100 100 100 100 100 100 100 100 100 100 100 99 100 99 90 17 5 5 80 100 100 100 100 100 100 100 100 100 100 100
100 100 100 100 100 100 100 100 100 100 100 100 100 100 100 100 100 100 100 100 99 90 68 37 19 5 99 100 100 100 100 100 100 100 100 100 100 100

GFSNE_prec_cloud_072.txt.gz
Cloud_Cover
5 5 5 5 5 5 5 5 5 5 1 2 5 95 94 100 100 94 10 5 0 0 0 0 0 1 5 5 5 5 5 5 7 5 7 50 47 100
5 5 5 5 5 5 5 5 5 5 8 5 5 81 100 98 100 38 22 5 0 0 0 0 5 5 5 5 7 27 91 93 98 100 100 100 100 100
5 5 5 5 5 6 5 32 57 84 72 5 61 90 90 100 100 100 100 5 0 0 0 0 5 5 5 5 5 16 17 25 74 97 100 100 100 100
5 5 5 5 10 48 63 56 78 94 100 99 91 99 96 100 100 100 100 5 0 0 0 0 5 5 5 5 5 5 5 5 55 56 78 100 100 100
5 14 5 5 5 5 5 59 80 100 100 100 77 99 100 100 100 100 100 16 3 0 0 0 5 2 5 5 5 5 10 5 5 5 24 61 72 97
73 5 5 5 5 5 5 34 67 96 84 100 100 98 100 100 100 100 100 92 5 3 3 5 5 0 2 1 5 5 5 5 5 5 11 5 24 32
5 5 5 5 5 5 5 5 6 76 100 100 100 99 100 100 100 100 100 83 5 5 5 5 54 6 5 52 74 72 10 40 5 5 5 5 5 5
5 5 5 5 5 5 5 5 5 10 89 100 100 100 100 100 100 100 100 99 5 60 53 5 42 12 73 83 87 1 0 5 5 5 5 5 5 5
5 6 5 5 10 79 82 51 17 6 65 78 99 100 100 100 100 100 100 100 94 89 78 41 95 99 100 100 97 5 5 5 5 5 5 5 5 5
17 5 5 14 59 22 23 90 99 100 98 54 92 100 100 100 100 100 100 100 99 98 100 100 99 100 100 98 38 5 5 5 5 9 5 5 5 5
13 12 6 60 77 54 12 75 86 100 100 84 28 77 59 95 100 100 98 100 100 99 100 99 100 97 100 100 100 85 5 5 5 5 5 5 5 5
13 5 63 93 84 84 98 84 97 98 100 100 98 19 53 86 89 100 100 100 100 100 100 95 100 98 100 100 100 97 100 100 84 98 100 100 60 56
5 5 5 72 100 38 100 100 81 100 100 99 100 100 100 100 100 100 100 100 100 100 100 96 100 100 100 100 100 100 100 100 100 99 100 99 100 100
5 5 6 5 18 76 99 100 100 100 100 95 100 100 100 100 100 100 100 100 100 99 100 100 100 100 100 100 99 100 100 95 98 76 100 77 100 100
93 59 5 5 5 65 100 100 100 100 100 100 100 100 100 100 100 100 100 100 100 100 100 100 100 100 100 100 100 100 100 100 97 100 99 91 93 96
96 50 37 52 25 30 100 100 100 100 100 100 100 100 100 100 100 100 100 100 100 100 100 100 100 100 100 100 100 100 100 100 100 99 100 100 84 100
92 40 91 97 95 99 100 100 100 100 100 100 100 100 100 100 100 100 100 100 100 100 100 100 100 100 100 100 100 100 100 100 100 99 99 98 100 100
64 84 78 88 93 100 100 100 100 100 100 100 100 95 100 100 100 100 100 100 100 100 100 100 100 100 100 100 100 100 100 100 100 99 100 100 81 100
90 100 100 100 95 98 100 100 100 100 100 100 100 100 100 100 100 100 100 100 100 100 100 100 100 100 100 100 100 62 100 100 98 100 100 100 100 91
100 100 100 100 100 100 100 95 100 100 100 100 100 100 100 100 100 100 100 100 100 100 100 100 100 100 99 100 100 96 38 81 98 100 100 100 99 82
100 100 100 100 100 100 100 100 100 100 100 100 100 100 100 100 100 100 100 100 100 100 100 100 100 14 5 74 100 97 100 80 72 97 100 96 100 97
100 100 100 100 100 100 100 100 100 100 100 100 100 100 100 100 100 100 100 100 100 100 100 100 97 12 58 100 100 91 99 96 61 63 43 50 99 99
100 100 100 100 100 100 100 100 100 100 100 100 100 100 100 100 100 100 100 100 100 100 100 100 80 5 70 100 96 100 97 84 100 100 100 22 67 92

GFSNE_prec_cloud_075.txt.gz
Cloud_Cover
89 44 7 7 5 5 5 5 8 5 5 3 5 5 17 63 90 5 6 91 69 5 3 0 0 0 5 5 5 5 5 5 6 7 26 52 67 37
79 35 93 98 5 5 5 5 11 18 5 4 5 33 76 76 100 84 68 21 6 24 5 0 0 0 4 5 5 5 5 5 74 86 98 100 100 100
100 100 100 11 5 5 5 5 2 34 44 5 83 23 68 8 96 100 78 96 63 99 12 1 0 0 0 5 5 5 5 5 5 30 98 100 100 100
100 98 19 5 5 5 5 5 5 10 86 8 4 5 75 61 58 92 53 100 88 100 98 5 0 0 0 0 2 5 5 5 5 19 91 100 100 100
84 21 7 10 20 5 6 5 5 10 27 32 12 10 78 6 65 97 41 81 63 100 60 5 0 0 0 0 0 0 1 5 5 5 5 39 94 100
100 100 100 59 52 27 5 5 12 55 56 67 26 97 20 5 44 68 79 100 92 100 68 59 7 34 5 5 3 3 4 5 5 55 5 5 5 5
100 100 69 69 14 5 5 5 5 5 5 45 15 96 5 15 82 97 100 77 100 78 6 74 85 99 65 64 52 90 41 6 4 5 5 5 5 5
100 81 25 15 5 7 98 78 5 5 5 5 5 5 5 98 100 98 69 100 84 97 22 21 95 88 79 57 100 15 5 1 1 5 34 35 5 5
99 87 8 20 33 5 5 76 93 91 92 100 44 5 5 86 100 87 27 85 97 96 99 26 40 69 100 100 98 77 5 0 3 5 5 5 5 5
49 6 17 56 35 82 83 23 15 7 98 69 70 64 87 78 99 98 100 92 31 85 100 18 86 79 100 84 9 58 52 4 2 3 5 5 5 5
61 61 22 5 5 5 8 58 5 5 71 100 12 83 97 100 80 99 67 99 36 92 100 93 87 68 70 25 61 91 71 98 5 5 5 13 5 5
7 5 5 5 5 5 5 7 89 71 49 100 88 22 92 71 54 71 88 97 67 67 100 84 100 100 58 12 86 7 49 100 73 96 12 35 88 96
5 13 5 5 5 5 5 6 57 41 53 90 100 100 100 100 64 86 63 46 100 85 100 99 94 100 97 81 82 76 20 92 42 83 60 63 100 99
18 6 11 5 5 5 5 5 5 38 99 100 100 100 100 100 100 95 100 65 66 99 100 96 91 99 100 100 98 82 49 80 96 95 5 87 68 96
5 6 5 5 5 5 18 9 6 96 100 100 98 98 100 100 100 100 94 100 100 100 100 100 95 99 100 100 83 94 51 80 80 87 73 48 14 5
9 42 5 10 73 67 18 47 55 100 100 88 100 100 100 100 100 99 100 100 99 100 100 86 77 85 95 100 98 84 93 92 84 91 67 45 28 60
7 5 65 73 63 63 58 98 74 100 98 96 100 100 100 100 93 97 96 100 100 100 100 87 98 76 66 83 80 88 99 100 96 100 100 24 71 82
37 75 100 100 100 100 95 60 100 98 100 100 100 100 100 80 92 99 77 100 100 100 100 100 100 100 99 62 95 99 100 100 100 100 73 95 62 25
88 99 100 100 100 100 100 100 83 98 100 100 100 100 100 100 100 99 100 100 100 100 100 87 100 100 100 66 89 78 61 87 68 82 98 99 86 5
100 100 100 100 100 100 100 100 100 99 99 100 100 100 99 100 98 97 100 100 100 100 100 100 100 100 100 97 49 5 78 92 96 97 100 96 22 28
100 100 100 100 100 100 100 100 100 100 100 100 100 100 100 100 100 100 100 100 100 100 100 100 100 77 7 5 16 14 93 55 38 92 94 98 88 58
100 100 100 100 100 100 100 100 100 100 100 100 100 100 100 100 100 100 100 100 100 100 100 100 100 82 81 95 90 43 82 100 34 5 15 47 80 98
100 100 100 100 100 100 100 100 100 100 100 100 100 100 100 92 100 100 100 100 100 100 100 100 100 99 95 93 94 41 68 99 91 84 78 81 21 5

GFSNE_prec_cloud_081.txt.gz
Cloud_Cover
100 100 100 100 100 100 100 58 73 74 100 100 100 98 99 100 29 5 4 3 0 3 5 5 5 30 44 8 21 3 0 1 5 5 5 22 78 99
100 100 100 100 100 100 100 100 100 100 57 100 100 100 97 50 5 5 5 3 5 5 11 5 5 78 72 85 30 0 0 0 4 5 5 5 44 96
100 100 100 100 100 100 100 100 100 100 100 100 100 98 53 27 82 12 61 92 100 100 96 100 75 93 36 19 0 0 0 0 0 5 5 18 93 100
100 100 100 100 100 100 100 100 100 100 89 63 94 55 72 100 70 12 25 100 100 100 100 99 38 95 95 4 0 2 1 0 0 5 5 5 5 5
100 100 100 100 100 100 99 49 6 31 76 31 17 5 6 77 88 100 63 7 5 5 2 1 5 100 37 5 11 5 5 5 0 5 5 5 5 5
90 98 63 43 75 10 5 33 83 98 100 100 76 5 5 5 11 7 5 44 5 0 5 6 59 100 63 84 89 38 5 4 5 5 5 13 5 5
31 27 5 5 5 5 5 5 5 7 18 71 12 9 72 39 48 5 85 29 3 3 5 54 100 100 19 77 52 6 5 7 94 32 9 5 5 3
90 39 5 5 5 5 5 6 97 15 41 5 6 5 5 7 77 100 98 100 51 5 5 5 9 5 3 5 5 5 5 22 53 5 5 5 5 5
64 5 51 47 39 6 65 86 76 85 82 5 5 44 64 35 81 87 59 65 10 79 93 77 22 3 4 5 4 5 81 79 18 7 19 8 5 0
95 98 92 99 90 77 95 100 100 100 14 5 5 5 5 5 14 52 9 43 24 67 13 10 5 5 1 5 4 13 88 5 49 9 5 5 14 6
100 100 100 100 100 100 96 100 100 92 22 5 5 5 5 5 32 100 100 100 92 50 68 37 5 5 5 3 4 97 46 42 5 12 9 18 92 100
100 100 100 100 100 100 100 100 88 11 5 5 36 89 6 5 50 100 98 100 100 73 75 95 75 8 5 5 5 87 78 18 5 5 5 8 26 86
100 100 100 100 100 100 100 100 67 85 81 96 86 99 98 100 100 100 100 100 96 35 90 100 53 7 5 5 11 100 28 5 5 5 5 5 5 49
100 100 100 100 100 100 100 100 99 81 59 99 100 100 100 100 100 95 91 89 81 84 100 100 61 66 5 18 43 99 77 5 5 5 5 5 5 55
100 100 100 100 100 100 100 82 62 96 99 100 100 100 100 100 71 85 90 100 99 97 100 100 96 75 77 50 78 100 85 87 5 5 5 19 5 90
100 100 100 100 100 100 100 100 100 100 100 100 100 100 88 100 80 98 100 100 100 100 100 90 83 100 88 70 26 100 63 96 5 21 94 61 95 99
100 100 100 100 100 100 100 100 100 100 100 100 100 99 88 100 98 99 100 100 100 100 100 81 66 87 88 56 97 79 73 28 18 32 100 46 70 70
100 100 100 100 100 100 100 100 100 100 100 92 98 96 100 100 100 100 100 100 100 100 100 88 80 89 88 96 80 78 47 59 26 40 29 80 43 83
100 100 100 100 100 100 100 100 100 95 21 100 71 100 100 100 100 100 100 96 100 100 65 46 98 99 86 99 100 92 96 84 30 62 84 59 40 92
100 100 100 100 100 100 100 88 38 87 81 81 62 100 100 100 95 100 100 100 100 100 100 90 95 85 52 100 100 42 91 64 60 39 79 74 10 7
100 100 100 99 97 66 80 72 78 76 55 53 6 99 100 100 100 100 100 100 100 100 93 80 100 100 100 100 100 63 65 36 40 14 68 87 98 25
100 100 100 97 76 93 85 79 16 47 87 5 65 100 100 100 100 100 100 100 100 100 100 100 96 100 100 100 100 84 73 64 68 50 77 85 86 72
100 100 94 69 61 72 85 70 52 62 43 37 100 98 100 100 100 100 100 100 100 100 100 100 100 100 100 100 100 90 69 64 56 55 80 94 100 80

GFSNE_prec_cloud_084.txt.gz
Cloud_Cover
100 100 100 100 100 100 100 100 100 92 92 100 100 100 86 100 72 77 39 5 6 5 5 19 12 10 10 5 6 5 5 1 5 3 5 5 5 62
100 100 100 100 100 100 100 95 63 100 100 100 100 100 64 50 27 48 43 82 35 96 95 6 41 98 100 100 100 16 11 5 0 0 5 5 8 91
100 100 100 100 100 100 100 100 100 79 61 99 94 94 18 5 14 30 44 53 72 100 68 49 100 28 84 58 93 5 9 5 2 2 1 5 7 89
100 100 100 100 100 100 100 82 74 16 9 61 76 5 5 8 6 63 29 69 28 5 5 6 39 17 0 45 73 94 81 18 18 24 2 0 5 5
100 100 100 90 100 71 18 32 10 5 5 3 5 5 5 43 12 5 5 5 5 5 5 6 78 1 2 6 98 99 98 84 94 46 1 2 0 5
100 100 100 88 7 13 64 10 5 5 5 21 5 8 53 91 8 5 5 5 5 5 5 96 5 6 5 100 100 100 100 79 14 11 24 38 5 5
100 100 68 68 70 50 5 5 19 58 98 100 84 35 80 14 6 5 5 7 5 5 5 50 100 95 5 22 61 33 19 5 25 97 71 16 8 19
100 96 100 100 82 5 61 90 100 99 99 73 5 5 5 7 28 75 100 68 76 30 6 5 5 5 5 77 62 61 100 96 5 89 52 30 17 5
80 98 100 99 79 89 76 83 100 100 83 9 6 83 100 100 100 82 11 34 90 57 88 6 84 5 5 14 5 4 0 0 11 49 97 98 13 5
96 100 100 100 100 93 73 86 100 100 100 91 97 100 100 100 60 17 56 98 81 94 100 98 55 6 5 5 5 5 2 3 69 32 5 27 7 5
82 97 96 95 98 82 96 100 100 100 100 100 100 100 100 100 100 83 100 100 100 100 100 100 97 98 50 52 100 17 5 1 5 50 5 8 56 5
99 83 82 85 100 100 100 100 91 81 100 100 100 100 100 100 100 100 100 100 100 100 100 100 100 100 32 41 95 78 5 5 8 62 5 5 5 5
100 100 100 100 100 100 100 100 86 100 100 100 100 100 100 100 100 100 100 100 100 100 51 100 72 100 99 78 6 5 5 5 6 5 5 5 5 5
100 100 100 100 100 100 100 100 100 100 100 100 100 100 100 100 100 100 100 100 100 100 100 100 99 100 100 100 14 5 20 78 34 68 14 16 5 5
100 100 100 100 100 100 100 100 100 100 100 100 100 100 100 100 100 100 100 100 100 100 100 100 100 100 100 100 51 6 74 99 29 5 78 77 5 5
100 100 100 100 100 100 100 100 100 100 100 100 100 100 100 100 100 100 85 97 98 100 100 98 100 100 100 45 55 78 100 100 99 11 98 13 39 99
100 100 100 100 100 100 100 100 100 100 100 100 100 100 100 81 100 77 100 87 100 100 93 100 100 98 95 95 98 97 93 100 96 100 57 20 88 68
100 100 100 100 100 100 100 100 100 100 100 100 100 67 99 100 100 90 95 99 100 100 100 100 100 97 100 72 81 93 85 100 100 71 66 87 9 92
100 100 100 100 100 100 100 100 100 96 92 47 57 14 98 100 100 100 100 100 100 100 100 100 100 100 100 78 97 74 100 95 100 71 47 93 63 18
100 100 100 100 100 100 94 96 90 63 38 79 35 37 89 100 100 100 100 100 100 100 100 100 100 100 90 46 100 100 99 100 100 59 74 70 30 49
100 100 100 100 100 100 96 99 100 78 76 98 42 75 100 88 100 100 100 100 100 100 100 100 100 99 100 99 100 99 92 100 100 100 60 76 69 55
100 100 100 95 87 76 90 100 92 82 76 88 87 97 41 48 100 100 100 100 100 100 100 100 100 100 81 95 100 100 84 100 100 98 70 72 62 78
100 100 96 89 85 100 99 99 87 100 74 86 86 8 78 100 99 100 93 100 100 100 100 100 100 100 86 100 100 100 100 100 100 96 62 83 100 100

GFSNE_prec_cloud_087.txt.gz
Cloud_Cover
100 100 98 100 100 100 100 100 100 100 100 100 100 100 100 91 6 2 1 5 5 5 5 74 5 8 9 6 5 5 5 56 97 100 46 5 4 5
99 99 76 99 100 92 100 100 100 100 100 100 93 25 5 5 3 4 5 18 40 82 5 83 93 99 96 5 23 72 4 5 33 90 5 5 5 65
100 100 100 100 100 100 100 100 100 100 93 6 5 5 5 49 83 82 41 48 84 100 100 100 100 100 8 5 5 4 0 3 5 79 44 5 5 91
100 100 100 100 100 100 100 100 100 100 41 5 5 39 81 92 100 100 100 100 100 100 100 100 100 14 5 5 5 5 0 5 29 96 36 5 5 5
100 100 100 100 100 100 100 100 100 51 5 5 5 9 80 100 100 100 98 100 97 54 100 100 93 5 5 8 100 6 5 29 100 100 94 77 5 6
100 100 100 100 100 100 100 100 18 6 15 15 11 9 22 80 52 83 72 18 5 41 100 64 14 5 5 24 5 5 5 99 75 100 82 5 5 5
100 100 100 100 100 100 100 40 61 85 84 51 10 6 65 99 98 80 11 11 23 77 68 90 14 5 5 38 31 6 54 6 2 5 5 5 72 71
100 100 100 100 97 100 100 100 100 98 97 58 78 90 100 100 99 87 7 5 24 97 73 9 57 28 8 5 5 87 56 5 5 5 5 84 5 5
100 100 100 100 87 82 100 100 100 100 76 66 59 98 99 99 86 44 13 23 70 86 98 27 83 36 32 68 100 89 98 5 4 1 0 4 5 5
100 100 100 100 94 100 100 95 97 100 98 55 45 100 70 67 71 36 95 100 100 100 100 100 67 49 100 97 100 100 15 2 5 5 5 5 5 5
100 90 100 100 100 99 100 98 100 100 100 100 100 99 100 100 100 95 100 100 100 91 100 100 100 100 100 74 98 98 66 96 5 5 5 16 76 5
100 100 100 100 100 100 100 100 100 100 100 100 100 100 100 100 100 100 100 100 100 100 100 100 100 99 97 8 100 100 100 61 5 5 5 19 5 5
100 97 100 100 100 100 100 100 100 100 100 100 100 100 100 100 100 100 100 100 100 100 100 100 97 100 100 95 40 90 64 100 6 5 3 4 5 5
100 100 100 100 100 100 100 100 100 100 100 100 100 100 100 100 100 100 100 100 100 100 100 100 95 74 99 100 100 100 100 90 7 5 5 5 46 83
100 100 100 100 100 100 100 100 100 100 100 100 100 100 100 100 100 100 100 100 100 100 100 100 100 100 100 98 98 100 100 100 12 5 5 42 100 31
100 100 100 100 100 100 100 100 100 100 100 100 100 100 100 100 100 100 100 100 100 19 66 100 100 100 100 100 100 91 100 29 42 69 5 99 97 59
100 100 100 100 100 100 100 100 100 100 100 100 100 100 100 100 95 95 90 96 100 100 42 49 100 100 100 100 100 100 96 48 5 69 40 100 96 7
100 100 100 100 100 100 100 100 100 100 100 100 100 73 13 86 100 87 51 100 100 100 98 74 100 100 100 100 100 97 73 37 42 16 100 100 97 90
100 100 100 100 100 100 100 100 100 100 96 69 90 9 51 99 100 98 99 100 100 100 94 95 100 100 100 100 100 63 93 5 27 92 100 100 100 96
100 100 100 100 100 100 100 100 100 85 34 59 66 56 81 100 57 75 96 100 100 100 95 100 100 100 100 100 98 54 34 23 83 100 100 100 100 100
100 100 100 100 100 100 99 97 100 98 65 100 90 99 92 71 100 100 100 100 100 100 100 84 100 100 100 100 100 97 8 57 100 100 100 100 100 100
100 100 98 87 78 84 100 100 95 98 61 99 100 100 91 96 100 100 100 100 100 100 100 100 100 100 100 99 92 66 5 74 100 100 100 100 100 100
81 97 85 84 80 95 80 84 79 99 98 100 100 67 97 100 69 100 100 100 100 100 100 100 100 100 100 100 100 37 81 100 100 100 100 100 100 100

GFSNE_prec_cloud_090.txt.gz
Cloud_Cover
68 47 47 84 100 99 98 100 100 100 100 100 100 100 100 100 78 7 10 7 97 81 5 5 5 5 5 5 5 5 5 5 5 5 5 5 71 33
99 100 100 94 100 100 100 100 100 91 97 100 100 100 100 100 80 23 5 5 5 5 5 7 17 6 49 18 47 22 46 31 5 5 5 5 75 100
100 100 100 100 100 100 100 100 100 87 99 100 100 100 98 78 99 33 80 32 42 66 93 100 99 72 95 100 100 97 34 41 5 5 5 4 58 82
100 100 100 100 100 100 100 100 100 100 100 100 100 100 93 92 78 100 100 100 90 100 100 100 100 100 82 53 94 5 5 5 5 5 5 11 4 100
100 100 100 100 100 100 100 100 100 100 100 100 100 90 25 100 100 100 100 100 100 100 100 100 100 100 100 100 81 5 5 5 5 6 33 5 16 100
100 100 100 100 100 100 100 100 100 100 100 100 96 62 76 100 100 98 94 100 81 100 100 100 100 100 100 90 14 9 7 59 17 5 5 88 81 18
100 100 100 100 100 100 100 100 100 100 100 100 83 85 100 100 97 64 53 26 19 97 100 100 100 100 100 89 97 96 60 95 98 93 94 5 5 4
100 100 100 100 100 100 100 100 100 100 100 100 100 100 100 100 100 100 90 52 14 98 68 92 100 100 100 84 100 98 99 99 100 99 46 4 0 5
100 100 100 100 100 100 100 100 100 100 100 100 100 100 100 100 100 100 100 87 100 100 91 100 99 98 97 100 99 100 100 100 96 18 5 5 4 5
100 100 100 100 100 100 100 100 100 100 100 100 100 100 100 100 100 98 99 100 100 100 100 90 98 68 79 100 100 100 100 94 19 5 5 5 5 5
100 100 100 100 100 100 100 100 100 100 100 100 100 100 100 100 100 100 100 100 100 95 85 88 91 82 100 100 100 100 39 45 5 5 5 5 5 5
100 100 100 100 100 100 100 100 100 100 100 100 100 100 100 100 100 100 100 100 100 98 100 98 100 100 100 100 98 10 12 5 5 5 5 62 89 5
100 100 100 100 100 100 100 100 100 100 100 100 100 100 100 100 100 100 100 100 100 100 100 100 100 100 100 76 5 5 39 74 16 21 5 5 5 5
100 100 100 100 100 100 100 100 100 100 100 100 100 100 100 100 100 100 100 100 100 100 100 100 100 100 100 100 75 5 56 98 100 99 100 25 0 1
100 100 100 100 100 100 100 100 100 100 100 100 100 100 100 100 100 100 100 100 100 100 100 100 100 99 100 100 99 56 99 68 99 60 32 5 5 5
100 100 100 100 100 100 100 100 100 100 100 100 100 100 100 100 100 100 100 100 100 100 100 100 42 70 100 100 93 100 61 100 100 92 5 5 5 20
100 100 100 100 100 100 100 100 100 100 100 100 100 100 100 100 100 100 100 75 96 96 69 5 5 5 23 100 100 97 100 100 100 94 59 5 5 51
100 100 100 100 100 100 100 100 100 100 100 100 100 100 100 100 84 100 97 80 93 35 48 9 11 64 6 70 96 100 100 100 81 28 32 62 97 43
100 100 100 100 100 100 100 100 100 100 100 100 100 60 28 97 100 100 88 98 90 85 72 13 91 100 100 100 89 100 100 100 75 80 52 89 100 31
100 100 100 100 100 100 100 99 94 66 16 5 43 60 83 100 100 93 100 100 100 99 59 14 96 100 100 100 100 100 100 83 82 30 9 79 100 93
100 98 98 92 89 98 99 97 100 98 88 95 91 100 93 100 100 100 100 87 97 100 100 69 57 95 100 100 100 100 97 85 6 5 42 97 100 74
94 99 100 100 100 100 100 100 87 85 69 80 92 96 100 100 100 100 100 100 100 100 100 86 84 99 100 100 100 100 100 80 36 8 100 100 100 97
100 100 100 93 91 100 100 100 98 98 53 86 100 99 100 100 89 100 100 100 100 100 100 100 94 91 100 100 100 100 95 57 63 99 100 100 100 100

GFSNE_prec_cloud_093.txt.gz
Cloud_Cover
61 61 98 100 82 100 100 74 100 100 100 100 95 62 25 100 100 100 100 100 22 20 6 40 40 10 5 6 17 41 5 5 5 5 5 14 14 100
100 100 100 100 100 100 100 100 100 100 100 84 72 68 23 61 87 99 100 100 100 100 100 100 99 85 99 10 69 8 5 5 5 5 6 22 60 100
100 98 100 100 100 100 100 100 100 100 95 100 100 71 92 60 100 100 100 100 100 100 93 68 80 35 10 39 60 35 5 6 5 30 81 31 13 56
100 100 100 100 100 100 100 100 100 100 100 100 100 100 100 100 100 100 100 100 100 100 100 100 98 71 26 93 100 100 94 5 80 100 100 94 58 16
100 100 100 100 100 100 100 100 100 100 100 100 100 100 100 100 100 100 100 100 100 100 100 100 100 100 100 100 100 100 67 100 74 100 100 44 37 98
100 99 100 100 100 100 100 100 100 100 100 100 100 100 100 100 100 90 100 100 100 100 100 100 100 100 100 100 90 96 100 100 100 100 100 99 87 76
100 100 100 100 100 100 100 100 100 100 100 100 100 100 100 100 100 100 100 100 100 100 100 100 100 100 100 100 100 100 100 100 100 100 100 96 82 87
100 100 100 100 100 100 100 100 100 100 100 100 100 100 100 100 100 100 100 100 100 100 100 100 100 100 100 100 100 100 100 100 100 100 100 100 100 100
100 100 100 100 100 100 100 100 100 100 100 100 100 100 100 100 100 100 100 87 100 100 99 79 100 100 100 100 100 100 100 100 100 100 100 100 100 100
100 100 100 100 100 100 100 100 100 100 100 100 100 100 100 100 100 100 100 97 91 100 100 100 100 100 100 100 100 100 100 100 100 100 100 100 100 33
100 100 100 100 100 100 100 100 100 100 100 100 100 100 100 100 100 100 100 100 100 100 100 100 100 100 100 100 100 100 100 100 100 100 100 75 5 5
100 100 100 100 100 100 100 100 100 100 100 100 100 100 100 100 100 100 100 100 100 100 100 100 100 100 100 100 100 100 100 100 100 57 16 5 5 5
100 100 100 100 100 100 100 100 100 100 100 100 100 100 100 100 100 100 100 100 100 100 100 100 100 100 100 92 100 100 100 97 9 29 5 5 5 5
100 100 100 100 100 100 100 100 100 100 100 100 100 100 100 100 100 100 100 100 100 100 100 100 100 100 100 100 100 98 100 98 56 43 85 76 5 33
100 100 100 100 100 100 100 100 100 100 100 100 100 100 100 100 100 100 100 100 100 100 100 100 100 100 100 100 32 21 100 90 100 81 87 90 94 93
100 100 100 100 100 100 100 100 100 100 100 100 100 100 100 100 100 100 100 100 100 100 100 100 95 98 89 92 98 30 96 100 94 99 100 92 95 100
100 98 100 100 100 100 100 100 100 100 100 100 100 100 100 100 100 100 100 100 99 50 21 5 5 10 61 88 92 38 5 100 89 100 100 100 100 100
100 100 100 100 100 100 100 100 100 100 100 100 100 100 100 100 100 100 100 100 100 100 48 40 53 44 11 23 25 12 5 100 100 100 100 100 100 100
100 100 100 100 100 100 100 100 100 100 100 100 100 100 100 100 100 100 100 100 100 100 100 85 92 100 100 83 16 50 100 100 100 100 100 100 98 100
100 100 100 100 100 100 100 100 100 100 100 100 100 100 100 100 100 100 100 100 100 100 100 100 100 100 100 100 100 30 100 100 100 100 100 100 96 42
100 100 100 100 100 100 100 100 100 100 100 100 100 100 100 100 100 100 100 100 100 100 100 100 100 100 100 100 100 100 100 100 100 100 100 100 98 99
100 100 100 100 100 100 100 100 100 100 100 100 100 100 100 100 100 100 100 100 100 100 100 100 100 100 100 100 100 100 100 100 100 100 100 28 75 100
100 100 100 100 100 100 100 100 100 100 100 100 100 100 100 100 100 100 100 100 100 100 100 100 100 100 100 100 100 100 100 100 100 100 90 6 99 100

GFSNE_prec_cloud_096.txt.gz
Cloud_Cover
100 96 81 42 96 100 100 100 100 100 100 100 100 100 100 100 97 16 73 53 11 5 5 20 99 100 100 100 100 100 100 100 63 95 100 5 9 5
46 100 87 98 100 100 100 100 100 100 100 100 100 100 100 100 66 16 8 81 21 10 100 100 100 100 100 100 94 88 22 5 5 5 5 30 33 5
100 100 100 100 99 100 100 100 100 100 100 100 100 100 100 100 79 96 73 51 77 100 100 93 100 100 100 100 68 9 5 67 37 72 59 16 5 5
100 100 100 99 100 100 100 100 100 100 100 100 100 100 100 100 100 100 100 100 100 100 100 100 69 90 100 26 13 97 100 100 32 33 97 26 96 94
100 100 98 100 100 100 100 100 100 100 100 100 100 100 100 99 100 100 100 100 100 100 100 100 100 96 100 100 100 61 15 43 84 100 100 100 100 100
92 86 93 100 100 100 100 100 100 100 100 100 100 100 100 100 100 100 100 100 100 100 100 100 100 100 100 100 100 99 93 98 100 100 100 100 100 100
100 100 100 100 100 100 100 100 100 100 100 100 100 100 100 100 100 100 100 100 100 100 100 100 100 100 100 100 100 97 94 100 100 100 100 100 100 100
100 100 100 100 100 100 100 100 100 100 100 100 100 100 100 100 100 100 100 100 100 100 100 100 100 100 100 100 100 100 100 100 100 100 100 100 100 100
100 100 100 100 100 100 100 100 100 100 100 100 100 100 100 100 100 100 100 100 100 100 100 100 100 100 100 100 100 100 100 100 100 100 100 100 100 100
100 100 100 100 100 100 100 100 100 100 100 100 100 100 100 100 100 100 100 100 100 100 100 100 100 100 100 100 100 100 100 100 100 100 100 100 100 100
100 100 100 100 100 100 100 100 100 100 100 100 100 100 100 100 100 100 100 100 100 100 100 100 100 100 100 100 100 100 100 100 100 100 100 100 100 100
100 100 100 100 100 100 100 100 100 100 100 100 100 100 100 100 100 100 100 100 100 100 100 100 100 100 100 100 100 100 100 100 100 100 100 100 100 100
100 100 100 100 100 100 100 100 100 100 95 100 100 100 100 100 100 100 100 100 100 100 100 100 100 100 100 100 100 100 100 100 100 100 100 100 45 35
100 100 100 100 93 93 100 100 100 100 100 100 100 100 100 100 100 100 100 100 100 100 100 100 100 100 100 100 100 100 100 100 100 98 30 100 48 86
84 76 71 50 68 85 88 90 96 100 100 100 100 100 100 100 100 100 100 100 100 100 100 100 100 100 100 100 96 44 98 93 65 100 85 100 100 90
99 98 99 98 57 75 94 100 100 100 100 100 100 100 100 100 100 100 100 100 100 100 100 100 100 100 100 100 100 84 100 66 28 97 93 90 100 100
100 100 100 100 100 100 100 100 100 100 100 100 100 100 100 100 100 100 100 100 100 100 100 100 100 100 100 100 100 98 82 45 5 10 100 90 100 99
100 100 100 100 100 100 100 100 100 100 100 100 100 100 100 100 100 100 100 100 100 100 100 100 100 100 100 97 63 73 32 89 32 70 92 100 98 100
98 100 100 100 100 100 100 100 100 100 100 100 100 100 100 100 100 100 100 100 100 100 100 100 100 100 100 100 100 100 100 100 96 87 100 100 100 100
76 100 100 100 100 100 100 100 100 100 100 100 100 100 100 100 100 100 100 100 100 100 100 100 100 100 100 100 100 61 23 60 99 71 100 100 100 100
100 100 100 100 100 100 100 100 100 100 100 100 100 100 100 100 100 100 100 100 100 100 100 100 100 100 100 100 100 100 100 100 100 100 100 100 100 98
100 100 100 100 100 100 100 100 100 100 100 100 100 100 100 100 100 100 100 100 100 100 100 100 100 100 100 100 100 100 100 97 95 100 100 100 100 100
100 100 100 100 100 100 100 100 100 100 100 100 100 100 100 100 100 100 100 100 100 100 100 100 100 100 100 100 100 100 100 100 100 100 100 100 100 100

GFSNE_prec_cloud_099.txt.gz
Cloud_Cover
100 100 100 100 100 100 100 77 59 50 48 82 100 100 100 100 100 100 100 100 100 100 100 100 100 99 100 6 40 100 100 100 100 100 100 100 100 93
100 100 100 100 98 51 87 100 99 93 94 95 98 75 100 100 100 100 100 100 100 100 100 100 100 90 100 51 86 89 100 100 100 100 100 100 100 100
84 93 83 97 92 94 100 100 100 100 100 100 100 98 100 100 100 100 100 100 100 100 100 100 100 100 100 100 100 100 100 100 97 100 100 98 100 100
100 8 56 93 100 100 100 100 100 100 100 100 100 100 100 100 100 100 100 100 100 100 100 100 100 100 100 100 100 100 100 100 100 100 100 100 100 100
41 69 64 82 100 99 100 100 100 100 100 100 100 100 100 100 100 100 100 100 100 100 100 100 100 100 100 100 100 100 100 100 100 100 100 100 100 100
77 97 89 91 100 100 100 100 97 100 100 100 100 100 100 100 100 100 100 100 100 100 100 100 100 100 100 100 100 100 100 100 100 100 100 100 100 100
100 100 100 100 100 100 100 100 100 100 100 100 100 100 100 100 100 100 100 100 100 100 100 100 100 100 100 100 100 100 100 100 100 100 100 100 100 100
100 100 100 100 100 100 100 100 100 100 100 100 100 100 100 100 100 100 100 100 100 100 100 100 100 100 100 100 100 100 100 100 100 100 100 100 100 100
100 100 100 100 100 100 100 100 100 100 100 100 100 100 100 100 100 100 100 100 100 100 100 100 100 100 100 100 100 100 100 100 100 100 100 100 100 100
100 100 100 100 100 100 100 100 100 100 100 100 100 100 100 100 100 100 100 100 100 100 100 100 100 100 100 100 100 100 100 100 100 100 100 100 100 100
100 100 100 100 100 100 98 100 100 100 100 100 100 100 100 100 100 100 100 100 100 100 100 100 100 100 100 100 100 100 100 100 100 100 100 100 100 100
100 100 100 100 100 100 100 100 100 100 96 100 100 100 100 100 100 100 100 100 100 100 100 100 100 100 100 84 100 100 100 100 100 100 100 100 100 100
92 89 100 100 100 100 100 100 100 100 100 100 100 100 93 99 100 100 100 100 100 100 100 100 100 100 100 100 100 100 100 100 100 100 100 100 100 100
100 100 100 100 100 100 100 100 100 100 100 100 100 100 100 100 100 95 98 97 99 100 100 100 100 100 100 100 79 62 97 100 100 100 100 100 100 100
100 100 100 100 100 100 100 100 100 100 100 100 100 100 100 100 100 100 100 100 100 100 99 100 100 100 100 100 95 79 100 100 100 100 100 100 100 97
100 100 100 100 100 100 100 100 100 100 100 100 100 100 100 100 100 100 100 100 100 100 100 100 100 100 100 100 100 89 100 100 100 100 100 100 84 100
100 100 100 100 100 100 99 99 100 100 100 100 100 100 100 100 100 100 100 100 100 100 97 100 100 100 100 100 100 100 100 100 100 100 83 4 5 98
100 100 100 100 100 100 100 100 100 100 100 100 100 100 100 100 100 100 100 100 100 100 100 100 100 100 97 71 100 82 42 64 72 51 47 14 5 83
96 100 100 100 100 100 100 100 100 100 100 100 100 100 100 100 100 100 100 100 100 100 100 100 100 100 100 100 100 99 100 78 23 59 100 91 94 59
31 80 100 100 100 100 100 100 100 100 100 100 100 100 100 100 100 100 100 100 100 100 100 100 100 100 100 100 77 5 31 49 16 46 19 9 61 100
91 100 100 100 100 100 100 100 100 100 100 100 100 100 100 100 100 100 100 100 100 100 100 100 100 100 100 99 96 100 98 95 100 100 100 98 100 100
100 100 100 100 100 100 100 100 100 100 100 100 100 100 100 100 100 100 100 100 100 100 100 100 100 100 100 100 100 100 100 98 72 97 55 100 100 100
100 100 100 100 100 100 100 100 100 100 100 100 100 100 100 100 100 100 100 100 100 100 100 100 100 100 100 100 100 100 100 100 100 100 100 100 100 100

GFSNE_prec_cloud_102.txt.gz
Cloud_Cover
100 100 100 100 100 100 100 100 100 100 100 100 100 78 100 68 93 100 100 100 100 100 100 100 100 100 100 100 100 100 100 100 100 100 100 27 76 24
100 100 100 100 100 100 100 100 100 93 98 96 55 98 99 94 100 100 100 100 100 100 100 100 100 100 100 100 100 100 100 100 100 99 100 100 100 100
100 100 100 100 100 100 100 100 81 68 86 100 92 100 100 53 100 100 100 100 100 100 100 100 100 100 100 100 100 100 100 100 100 100 100 100 100 100
100 100 100 100 100 100 100 93 53 94 100 100 100 100 100 100 100 100 100 100 100 95 99 100 100 100 100 100 100 100 100 100 100 100 100 100 100 100
100 100 100 100 93 100 98 100 100 100 100 100 100 100 100 100 100 100 100 100 100 100 100 100 100 100 100 100 100 100 100 100 100 100 100 100 100 100
100 100 100 93 98 83 100 100 100 100 100 100 100 100 100 100 100 100 100 100 100 100 100 100 100 100 100 100 100 100 100 100 100 100 100 100 100 100
100 90 99 100 100 100 100 100 100 100 98 100 100 100 100 100 100 100 100 100 100 100 100 100 100 100 100 100 100 100 100 100 100 100 100 100 100 100
100 100 100 100 100 95 100 100 87 100 99 100 100 100 100 100 100 100 100 100 100 100 100 100 100 100 100 100 100 100 100 100 100 100 100 100 100 100
100 100 100 100 100 100 100 100 90 100 99 100 99 100 100 100 100 100 100 100 100 100 100 100 86 100 100 100 100 100 100 100 100 100 100 100 100 100
100 100 100 100 100 100 99 100 94 100 78 97 96 100 100 100 100 100 100 100 100 100 100 100 100 100 100 100 100 100 100 100 100 100 100 100 100 100
100 100 100 100 100 100 100 100 95 96 97 52 77 86 91 100 100 100 100 100 100 100 100 100 100 98 66 62 89 100 100 100 100 100 100 100 100 100
100 100 100 100 100 99 62 54 93 52 84 100 100 100 100 100 100 100 100 100 100 100 100 100 77 99 52 5 57 100 100 100 100 100 100 100 100 100
100 100 98 96 80 94 75 100 100 38 90 100 100 100 100 100 100 100 100 100 97 83 45 97 72 67 99 94 14 19 99 100 100 100 100 100 100 100
100 100 100 89 94 100 84 75 91 100 100 100 100 100 100 100 100 100 93 69 99 100 100 100 98 98 100 89 68 1 5 35 100 100 100 100 100 100
85 86 100 94 96 88 82 96 100 100 100 100 100 100 100 100 98 8 5 7 8 10 7 14 98 100 100 100 100 84 49 18 69 100 100 100 100 100
100 100 100 97 100 100 100 98 95 90 97 94 84 83 48 5 5 5 5 5 5 5 5 14 91 99 100 98 100 97 24 93 23 100 100 100 100 100
98 100 100 72 44 39 33 28 5 5 5 5 5 5 5 5 5 5 6 5 5 25 36 42 6 5 5 71 100 95 78 12 76 100 100 100 100 100
80 95 12 34 28 9 5 5 5 5 5 5 5 5 32 5 28 74 38 85 97 84 6 5 5 3 4 1 91 100 100 96 86 100 100 100 90 100
100 36 5 5 5 5 5 5 5 5 16 5 61 78 73 97 72 75 93 7 5 21 5 6 81 100 100 100 4 43 98 14 8 8 100 100 100 84
100 18 67 98 10 5 5 12 22 97 42 90 96 79 37 21 78 96 23 65 78 68 85 100 100 100 100 97 100 95 96 100 100 100 18 69 37 9
100 99 100 40 5 41 66 100 91 80 66 5 57 8 87 98 21 34 96 99 100 100 100 100 100 100 100 99 66 99 93 45 100 100 94 79 94 48
97 100 47 64 96 83 76 71 36 9 43 51 82 83 64 20 76 99 97 100 100 100 100 100 100 100 100 100 100 54 5 5 97 81 100 90 100 100
5 33 65 100 72 66 5 5 5 26 75 100 82 74 72 96 96 100 100 100 100 100 100 100 75 89 99 100 99 86 99 100 71 32 58 100 100 100

GFSNE_prec_cloud_105.txt.gz
Cloud_Cover
100 100 100 100 100 100 100 100 100 100 100 100 100 100 100 100 100 98 37 100 100 100 100 90 100 100 100 100 100 100 100 100 100 100 100 100 100 100
100 100 100 100 100 100 100 100 100 100 100 100 100 100 100 65 96 79 97 93 100 100 99 100 54 93 100 100 100 100 100 100 100 100 100 100 100 100
100 100 100 100 100 100 100 100 100 100 100 100 100 100 98 86 79 100 100 100 100 99 52 48 34 77 82 100 100 100 100 100 100 100 100 100 100 100
100 100 100 100 100 100 100 100 100 100 100 100 100 100 100 100 99 98 100 76 97 67 100 92 100 100 100 100 100 100 100 100 100 100 100 100 100 100
100 100 100 100 100 100 100 100 100 100 100 100 100 100 100 100 100 100 100 100 100 100 100 100 100 100 100 100 100 100 100 100 100 100 100 100 100 100
100 100 100 100 100 100 100 100 100 100 96 100 97 100 90 98 100 100 100 100 100 100 100 100 100 100 100 100 100 100 100 100 100 100 100 100 100 100
100 100 100 100 100 100 100 100 100 100 100 100 100 100 81 99 100 95 97 100 100 100 100 100 100 100 100 100 100 100 100 100 100 100 100 100 100 100
100 100 100 100 100 100 100 100 100 100 100 100 100 100 100 100 100 100 100 100 100 100 100 100 98 100 100 100 100 100 100 100 100 100 100 100 100 100
100 100 100 100 100 100 100 100 100 100 100 100 100 100 100 100 100 85 74 100 100 81 99 100 94 44 95 100 100 100 100 100 100 100 100 100 100 100
100 100 100 100 100 100 100 100 100 100 100 58 100 98 42 93 86 92 94 46 67 79 67 62 49 87 100 100 100 100 100 100 100 100 100 100 100 100
100 100 100 100 100 100 100 100 100 93 97 9 39 69 94 95 99 54 34 39 51 21 98 100 99 100 100 100 100 100 75 89 100 100 100 100 100 100
100 100 100 100 100 100 100 100 99 76 38 20 27 49 96 99 96 78 77 100 100 80 58 82 25 66 60 6 4 1 0 2 44 100 100 100 100 100
100 100 100 100 100 100 100 100 99 95 63 74 24 5 5 5 5 5 10 5 77 93 67 96 100 68 49 23 17 7 5 36 12 1 83 100 100 100
100 100 90 88 99 76 41 13 5 5 5 5 5 9 40 8 5 3 4 2 1 4 5 27 14 29 100 97 75 7 5 34 100 13 5 54 100 100
100 80 83 97 51 46 86 5 5 5 5 77 79 26 5 5 0 5 0 5 4 0 4 5 17 93 65 76 62 5 5 4 55 99 5 10 49 100
100 100 73 80 76 79 54 44 5 7 5 5 5 5 12 5 5 5 5 5 5 5 5 2 0 0 1 5 21 20 55 100 96 96 96 5 13 100
100 100 99 100 99 74 37 9 5 5 5 5 5 31 5 5 5 5 5 5 10 5 5 1 0 5 5 92 93 91 47 5 15 89 100 58 10 96
100 100 100 93 87 94 62 20 97 63 5 5 5 7 42 5 28 32 24 5 74 88 52 6 58 12 5 5 77 57 6 58 10 82 58 100 71 100
100 100 100 77 100 100 100 100 100 62 5 5 5 5 53 92 88 9 51 98 100 100 99 75 8 70 100 99 28 100 100 35 72 94 77 99 100 56
100 100 100 98 93 100 100 95 27 5 5 5 5 5 8 30 6 50 100 100 100 100 96 29 94 100 100 99 96 6 5 97 99 100 95 71 71 5
100 100 87 100 100 100 61 6 5 20 9 30 7 46 18 14 82 100 100 100 100 99 100 100 55 48 26 36 96 63 22 100 100 100 100 100 100 88
100 100 98 67 30 5 6 12 41 57 58 92 85 64 42 14 100 100 100 100 100 100 99 57 72 94 100 100 100 100 80 37 97 100 100 100 100 88
38 100 28 72 100 51 42 50 76 70 43 60 74 61 12 97 100 100 100 100 100 98 100 100 100 100 100 100 100 100 100 100 100 79 100 100 100 100

GFSNE_prec_cloud_111.txt.gz
Cloud_Cover
100 100 100 100 100 100 100 100 100 100 100 100 100 100 100 100 100 100 100 100 100 100 100 100 100 100 100 100 100 99 100 100 100 100 96 100 100 100
100 100 100 100 100 100 100 100 100 100 100 100 100 100 98 100 100 100 100 100 100 100 100 100 100 100 100 100 100 100 100 100 100 100 100 100 100 100
100 100 100 100 100 100 100 100 100 100 100 100 100 95 100 100 100 100 100 100 100 100 100 100 100 100 100 100 100 99 100 100 100 100 100 100 100 100
100 100 100 100 100 100 100 100 100 100 100 100 100 100 100 100 100 100 100 100 100 100 100 100 100 100 100 100 100 100 100 100 100 100 100 100 100 100
100 100 100 100 100 100 100 100 100 100 100 100 100 100 100 100 100 100 100 100 100 100 100 100 100 100 100 100 100 100 100 100 100 100 100 100 100 100
100 100 100 100 100 100 100 100 100 100 100 100 100 100 100 100 100 100 100 100 100 100 100 100 100 100 100 100 100 99 100 100 100 100 100 100 100 100
100 100 100 100 100 100 100 100 100 100 100 100 100 100 100 100 100 100 100 100 100 100 100 100 100 100 56 81 100 100 100 99 100 100 100 100 100 100
100 100 100 100 100 100 100 100 100 100 100 100 100 100 100 100 100 100 100 100 97 100 100 100 100 100 100 100 70 92 25 58 26 5 10 75 97 98
100 100 100 100 100 100 100 100 100 100 100 100 100 100 100 100 100 100 100 100 100 100 100 100 100 99 60 14 5 14 90 87 49 75 85 23 36 98
100 100 100 100 100 100 100 100 100 100 100 100 100 99 96 100 100 100 100 100 100 48 45 92 26 59 35 6 5 26 5 5 4 5 5 5 34 46
100 100 100 100 100 100 100 100 100 100 100 100 100 100 100 100 100 100 100 64 48 65 47 5 5 5 5 5 2 3 0 0 3 1 0 5 5 5
100 100 100 100 100 100 100 100 100 79 100 100 94 100 100 100 28 28 22 62 61 19 5 28 20 66 81 8 3 0 0 0 0 2 5 91 100 100
100 100 100 100 100 100 98 80 100 95 98 84 100 100 100 100 77 16 14 62 96 76 5 97 72 90 11 31 5 0 0 3 5 4 5 26 5 59
100 100 100 100 100 100 100 100 100 100 100 100 100 100 100 98 62 80 70 14 42 42 5 5 62 15 99 100 94 4 5 5 46 5 100 5 2 5
100 100 100 100 100 100 100 100 100 100 100 100 100 100 100 10 90 98 100 100 42 6 3 5 5 5 72 100 100 68 76 5 5 6 51 85 98 5
100 100 100 100 100 100 100 100 100 100 100 100 100 24 67 100 100 60 61 89 28 5 5 5 5 19 62 91 100 31 5 96 44 56 100 98 100 86
100 100 100 100 100 100 100 100 100 100 100 100 100 100 100 29 25 10 64 35 99 88 19 5 5 5 72 69 47 5 5 47 12 97 100 100 100 100
100 100 100 100 100 100 100 100 100 100 100 95 88 100 100 88 83 31 14 95 100 97 93 11 34 68 9 15 12 9 5 76 100 100 100 100 98 63
100 100 100 100 100 100 100 94 100 100 100 100 100 100 54 51 100 58 70 96 100 100 59 11 90 100 100 97 5 76 100 100 100 100 100 100 100 75
100 100 100 100 100 100 100 100 100 100 100 100 100 100 97 67 40 62 86 100 100 96 98 67 72 99 100 100 100 21 100 100 100 100 100 100 100 96
100 100 100 100 100 100 100 100 95 100 100 100 100 90 65 81 47 75 100 79 90 100 100 75 5 22 99 100 100 79 99 100 100 100 100 100 100 100
100 100 100 100 100 100 100 100 100 100 100 100 96 99 74 90 87 100 100 100 100 100 92 46 9 59 81 100 100 100 100 100 100 100 100 100 100 100
100 100 100 100 100 100 100 100 93 99 66 72 100 89 95 98 69 100 99 80 100 98 100 100 80 14 85 100 100 100 100 100 100 100 100 100 100 100

GFSNE_prec_cloud_114.txt.gz
Cloud_Cover
100 100 100 100 100 100 100 100 100 100 100 100 100 100 100 100 100 100 100 100 100 100 100 100 100 100 100 100 100 100 100 100 100 100 100 100 100 100
100 100 100 100 100 100 100 100 100 100 100 100 100 100 100 100 100 100 100 100 100 100 100 100 100 100 100 100 100 100 100 100 100 100 100 100 100 100
100 100 100 100 100 100 100 100 100 100 100 100 100 100 100 100 100 100 100 100 100 100 100 100 100 100 100 100 100 100 100 100 100 100 100 100 100 100
100 100 100 100 100 100 100 100 100 100 100 100 100 100 100 100 100 100 100 100 100 100 100 100 100 100 100 100 100 100 100 100 100 100 100 100 100 100
100 100 100 100 100 100 100 100 100 100 100 100 100 100 100 100 100 100 100 100 100 100 100 100 100 100 100 100 100 100 87 100 100 100 100 100 100 100
100 100 100 100 100 100 100 100 100 100 100 100 100 100 100 100 100 100 100 100 100 100 100 100 100 100 100 100 100 100 100 100 100 100 100 100 100 100
100 100 100 100 100 100 100 100 100 100 100 100 100 100 100 100 100 100 100 100 100 100 100 100 98 100 100 100 90 100 100 100 100 100 100 90 64 86
100 100 100 100 100 100 100 100 100 100 100 100 100 100 100 100 100 100 100 100 100 82 100 100 100 100 100 100 100 100 100 99 77 76 5 14 69 5
100 100 100 100 100 100 100 100 100 100 100 100 100 100 100 100 99 99 92 97 45 47 100 100 100 100 100 100 100 100 99 80 73 64 5 5 5 5
100 100 100 100 100 100 100 100 100 100 100 100 100 100 100 100 90 96 99 100 100 82 34 97 94 100 85 15 7 5 5 1 0 0 5 5 5 41
100 100 100 100 100 100 100 100 100 100 100 100 100 100 100 100 87 98 100 98 79 92 70 20 5 13 7 21 5 5 5 0 1 5 5 5 31 99
100 100 100 100 100 100 100 100 100 100 100 100 100 100 100 100 100 100 100 100 99 98 100 100 100 100 98 15 3 5 5 1 2 4 5 5 71 96
100 100 100 100 100 100 100 100 100 100 100 100 100 100 100 100 100 99 86 100 100 100 100 89 100 75 64 45 10 34 0 0 4 2 3 4 25 100
100 100 100 100 100 100 100 100 100 100 100 100 100 100 100 100 100 95 100 100 92 38 5 40 5 76 100 100 29 0 0 0 5 5 5 5 43 100
100 100 100 100 100 100 100 100 100 100 100 100 100 100 100 100 100 100 100 100 99 97 6 5 5 10 46 95 80 5 5 1 4 4 5 67 100 100
100 100 100 100 100 100 100 100 100 100 100 100 100 100 100 100 100 100 100 100 99 15 7 7 42 5 5 5 34 7 5 64 2 26 100 97 100 100
100 100 100 100 100 100 100 100 100 100 100 100 100 100 100 100 100 100 100 100 100 29 9 4 0 5 5 25 5 5 5 6 72 100 100 100 100 100
100 100 100 100 100 100 100 100 100 100 100 100 100 100 100 100 95 100 24 76 71 84 5 5 5 47 5 3 2 6 32 89 100 100 100 100 76 12
100 100 100 100 100 100 100 100 100 100 100 100 100 100 100 99 100 100 100 100 99 7 5 5 61 97 100 100 14 98 100 100 100 100 100 100 100 99
100 100 100 100 100 100 100 100 100 100 100 100 100 100 100 100 100 100 50 72 95 52 60 5 27 92 100 100 100 20 100 100 100 100 100 100 100 84
100 100 100 100 100 100 100 100 100 100 100 99 100 100 100 100 100 100 96 35 74 97 96 51 5 54 87 100 100 56 88 100 100 100 100 100 98 99
100 100 100 100 100 100 100 100 100 96 58 94 94 99 74 41 60 64 80 99 99 100 99 65 5 20 81 100 100 100 87 94 54 87 100 100 100 98
100 100 100 100 100 100 100 100 46 99 90 86 96 66 78 64 55 84 100 100 100 100 100 87 6 9 76 99 100 98 56 100 100 39 90 96 100 100

GFSNE_prec_cloud_117.txt.gz
Cloud_Cover
100 100 100 100 100 100 100 100 100 100 100 100 100 100 100 100 100 100 100 100 100 100 100 100 100 100 100 100 100 100 100 100 100 100 100 100 100 100
100 100 100 100 100 100 100 100 100 100 100 100 100 100 100 100 100 100 100 100 100 100 100 100 100 100 100 100 100 100 100 100 100 100 100 100 100 100
100 100 100 100 100 100 100 100 100 100 100 100 100 100 100 100 100 100 100 100 100 100 100 100 100 100 100 100 100 100 100 100 100 100 100 100 100 100
100 100 100 100 100 100 100 100 100 100 100 100 100 100 100 100 100 100 100 100 100 100 100 100 100 100 100 100 100 100 100 72 94 100 100 100 99 100
100 100 100 100 100 100 100 100 100 100 100 100 100 100 100 100 100 100 100 100 100 100 100 100 100 100 100 100 100 100 100 89 97 100 100 100 100 100
100 100 100 100 100 100 100 100 100 100 100 100 100 100 100 100 100 100 100 100 100 100 100 100 100 100 100 100 98 98 80 81 100 100 100 100 100 100
100 100 100 100 100 100 100 100 100 100 100 100 100 100 100 100 100 100 100 100 100 100 100 100 100 88 79 95 81 100 73 28 18 8 5 5 11 13
100 100 100 100 100 100 100 100 100 100 100 100 100 100 100 100 100 100 100 100 100 100 100 100 54 99 95 100 77 24 5 6 5 7 8 6 5 5
100 100 100 100 100 100 100 100 100 100 100 100 100 100 100 100 100 100 100 96 87 79 100 100 100 99 100 100 100 100 86 76 100 100 100 84 5 5
100 100 100 100 100 100 100 100 100 100 100 100 100 100 100 100 100 100 99 100 93 58 100 100 100 100 100 100 100 100 98 100 100 100 100 6 5 5
100 100 100 100 100 100 100 100 100 100 100 100 100 100 100 100 100 100 100 100 100 100 97 100 100 100 82 100 100 100 100 100 100 100 100 27 5 22
100 100 100 100 100 100 100 100 100 100 100 100 100 100 100 100 100 100 100 100 100 100 100 100 100 100 100 100 100 100 100 100 100 54 5 39 100 97
100 100 100 100 100 100 100 100 100 100 100 100 100 100 100 100 100 100 99 96 100 100 100 100 100 100 100 100 100 100 67 11 5 5 25 100 100 100
100 100 100 100 100 100 100 100 100 100 100 100 100 100 100 100 100 100 100 100 100 100 100 100 100 100 100 100 100 93 37 89 15 5 92 100 100 100
100 100 100 100 100 100 100 100 100 100 100 100 96 100 100 100 100 100 100 100 100 100 100 100 100 95 33 6 18 13 30 37 5 74 100 100 100 100
100 100 100 100 100 100 100 100 100 100 100 100 100 100 100 100 100 100 100 100 100 100 100 100 60 14 25 59 5 46 91 87 13 100 99 100 100 100
100 100 100 100 100 100 100 100 100 100 100 100 100 100 100 100 100 100 100 100 100 100 100 100 69 6 5 5 30 36 81 99 100 88 98 97 53 100
100 100 97 92 100 100 100 100 100 100 100 100 100 100 100 100 100 100 100 100 99 99 47 36 10 5 5 4 5 29 98 99 99 100 100 100 92 44
100 100 100 100 100 100 100 100 100 100 100 100 100 100 94 100 100 100 92 100 96 24 8 41 24 60 97 100 14 87 95 99 100 100 100 100 100 100
100 100 100 100 100 100 100 100 100 100 100 100 95 100 98 100 100 100 100 96 97 15 86 11 5 79 100 100 100 16 94 100 100 100 96 98 100 85
100 100 100 100 100 100 100 100 100 100 98 100 100 100 100 100 100 100 100 100 86 37 7 5 5 90 100 100 100 92 14 97 100 100 100 100 95 56
100 100 100 100 100 100 100 100 99 91 100 100 100 93 98 100 100 100 100 100 99 79 32 5 5 89 99 100 100 100 97 5 5 5 60 100 100 99
100 100 100 100 100 100 100 100 100 100 100 100 97 55 80 100 100 100 100 100 100 100 82 6 70 98 100 100 100 100 100 85 88 76 89 30 43 48

GFSNE_prec_cloud_120.txt.gz
Cloud_Cover
100 100 100 100 100 100 100 100 100 100 100 100 100 86 100 100 100 100 100 100 100 100 100 100 100 100 100 100 100 100 100 100 100 100 100 100 100 100
100 100 100 100 100 100 100 100 100 100 100 100 100 100 100 100 100 100 99 100 100 100 100 100 100 100 100 100 100 100 100 100 100 100 100 100 100 100
100 100 100 100 100 100 100 100 100 100 100 100 100 100 100 100 100 100 100 100 100 100 100 100 100 100 100 100 100 100 100 100 100 100 100 100 100 51
100 100 100 100 100 100 100 100 100 100 100 100 100 100 100 100 100 100 100 100 100 100 100 100 100 100 100 100 100 100 100 100 100 100 94 15 81 74
100 100 100 100 100 100 100 100 100 100 100 100 100 100 100 100 100 100 100 100 100 100 100 100 100 100 100 100 100 100 100 98 97 46 18 63 80 44
100 100 100 100 100 100 100 100 100 100 100 100 100 100 100 100 100 100 100 100 100 100 100 100 100 100 100 100 100 96 54 11 35 88 100 75 45 43
100 100 100 100 100 100 100 100 100 100 100 100 100 100 100 100 100 100 100 100 100 100 100 100 100 100 100 96 25 27 5 5 25 95 100 100 99 100
100 100 100 100 100 100 100 100 100 100 100 100 100 100 100 100 100 100 100 100 100 100 100 100 100 100 100 91 35 89 100 100 100 100 100 100 100 100
100 100 100 100 100 100 100 100 100 100 100 100 100 100 100 100 100 100 100 100 100 100 100 100 93 100 100 98 100 100 100 100 100 100 100 100 100 100
100 100 100 100 100 100 100 100 100 100 100 100 100 100 100 100 100 100 100 100 100 100 100 100 100 100 100 100 100 100 100 100 100 100 100 100 100 100
100 100 100 100 100 100 100 100 100 100 100 100 100 100 100 100 100 100 100 100 100 99 100 100 100 100 100 100 100 100 100 100 100 100 100 100 100 100
100 100 100 100 100 100 100 100 100 100 100 100 100 100 100 100 100 100 100 100 100 100 100 99 95 100 100 100 100 100 100 100 100 100 100 100 96 72
100 100 100 100 100 100 100 100 100 100 100 100 100 100 100 100 100 100 100 92 100 100 100 100 100 100 100 100 95 100 100 100 100 100 100 46 44 100
100 100 100 100 100 100 100 100 100 100 100 100 100 100 100 100 100 100 100 100 100 100 100 100 100 100 100 100 100 100 98 96 30 67 88 23 36 74
100 100 100 100 100 100 100 100 100 100 100 100 100 100 100 100 100 100 100 100 100 100 100 100 97 86 99 100 96 70 62 28 41 100 100 100 100 100
100 100 100 100 100 100 100 100 100 97 100 100 100 100 100 100 100 100 100 100 100 100 100 95 68 71 98 83 89 98 73 92 100 100 100 100 100 100
100 100 100 100 100 78 100 100 100 97 100 100 100 100 100 100 100 100 100 100 100 100 64 37 29 68 92 92 67 72 45 100 99 100 100 100 100 100
100 100 100 100 99 95 98 92 100 100 100 100 100 100 100 100 100 100 100 100 100 100 66 44 15 26 67 47 5 5 95 91 99 100 100 100 100 100
100 100 100 100 100 100 100 100 100 100 100 100 100 100 100 88 100 100 100 94 36 45 5 9 11 71 80 99 8 3 61 100 100 100 100 99 94 100
100 100 100 100 100 100 100 100 100 90 74 99 100 100 100 100 93 61 76 92 67 5 5 5 5 62 100 100 100 27 52 100 100 100 99 89 96 98
100 100 100 100 100 99 100 100 92 93 95 100 100 100 100 91 94 88 100 93 64 32 5 5 5 5 100 97 100 93 62 98 99 100 100 100 100 99
100 100 100 100 70 74 97 95 95 99 100 100 100 100 100 100 100 100 100 100 100 90 30 5 45 99 94 100 100 100 96 72 67 77 100 96 86 100
100 100 100 99 100 100 98 95 100 98 99 95 99 94 100 100 100 100 100 100 100 100 98 45 100 100 100 100 100 100 100 100 100 100 86 100 40 96

GFSNE_prec_cloud_123.txt.gz
Cloud_Cover
100 100 100 100 100 100 100 100 100 100 100 100 100 100 100 100 100 100 99 100 100 100 100 100 100 100 100 100 100 100 100 100 100 100 100 100 100 100
100 100 100 100 100 100 100 100 100 100 100 100 100 100 100 100 100 100 100 100 100 100 100 100 100 100 100 100 100 100 100 100 100 100 100 100 100 100
100 100 100 100 100 100 100 100 100 100 100 100 100 100 100 100 100 100 100 100 100 100 100 100 100 100 100 100 100 100 100 100 100 100 100 100 100 100
100 100 100 100 100 100 100 100 100 100 100 100 100 100 100 100 100 100 100 100 100 100 100 100 100 100 100 100 100 100 100 100 100 100 100 100 94 59
100 100 100 100 100 100 100 100 100 100 100 100 100 100 100 100 100 100 100 100 100 100 100 100 100 100 100 100 100 100 100 100 99 100 90 20 42 23
100 100 100 100 100 100 100 100 100 100 100 100 100 100 100 100 100 100 100 100 100 100 100 100 100 100 100 100 100 100 100 100 100 89 100 88 98 88
100 100 100 100 100 100 100 100 100 100 100 100 100 100 100 100 100 100 100 100 100 100 100 100 100 100 100 100 100 100 100 97 77 68 99 21 38 100
100 100 100 100 100 100 100 100 100 100 100 100 100 100 100 100 100 100 100 100 100 100 100 100 100 100 100 98 78 92 57 46 43 100 18 77 100 100
100 100 100 100 100 100 100 100 100 100 100 100 100 100 100 100 100 100 100 100 100 100 100 100 100 100 100 95 100 100 92 62 27 70 100 100 100 100
100 100 100 100 100 100 100 100 100 100 100 100 100 100 100 100 100 100 100 100 100 100 100 100 98 100 100 83 87 84 99 92 99 100 100 100 100 100
100 100 100 100 100 100 100 100 100 100 100 100 100 100 100 100 100 100 100 100 100 100 100 100 100 100 100 100 100 100 100 100 100 100 100 100 100 93
100 100 100 100 100 100 100 100 100 100 100 100 100 100 100 100 100 100 100 100 100 100 100 94 100 100 100 100 100 100 100 100 100 100 100 64 5 7
100 100 100 100 100 100 100 100 100 100 100 100 100 100 100 100 100 100 100 100 100 96 83 100 100 100 100 100 100 100 100 100 100 48 93 5 5 5
100 100 100 100 100 100 100 100 100 100 100 100 100 100 100 100 100 100 99 96 98 99 100 100 100 100 100 100 100 100 100 100 89 79 72 48 39 55
100 100 100 100 100 100 100 100 100 100 100 100 100 100 100 95 100 100 100 100 100 100 100 100 100 100 100 100 100 100 100 13 91 91 28 5 23 17
100 100 100 100 100 100 100 100 100 100 100 97 75 86 95 88 100 98 100 100 100 100 100 100 100 100 100 100 97 91 99 97 92 97 40 90 42 85
100 100 100 100 100 100 100 100 100 99 100 100 100 99 100 90 91 100 100 100 84 99 100 100 98 100 33 5 60 97 99 100 100 100 98 60 10 45
100 100 100 100 100 100 91 100 100 100 100 100 100 73 100 100 100 100 82 85 60 19 17 16 5 39 60 86 5 5 82 99 100 100 97 94 43 5
100 100 100 100 100 100 99 90 99 100 100 99 100 100 100 100 100 84 66 18 5 5 5 64 33 58 96 100 86 8 30 97 96 92 100 87 48 6
100 100 100 100 100 98 96 100 100 100 100 100 100 100 100 100 98 77 85 92 80 25 70 100 26 11 92 96 100 17 98 98 100 100 97 78 47 5
100 100 100 100 100 100 100 100 100 100 98 100 100 98 100 100 99 95 100 91 49 60 53 5 5 5 73 100 100 98 82 100 100 100 91 88 73 26
100 100 100 100 100 100 100 100 100 100 100 100 100 100 100 100 100 100 100 100 100 99 92 55 54 100 100 100 100 97 53 5 5 20 97 97 80 96
100 100 100 100 100 100 100 100 100 100 100 100 100 100 100 100 100 100 100 100 100 100 100 99 98 100 100 100 100 100 99 100 89 77 5 57 100 19

GFSNE_prec_cloud_126.txt.gz
Cloud_Cover
100 100 100 100 100 100 100 100 100 100 100 100 100 100 100 100 88 98 98 100 100 100 100 100 100 100 100 100 100 100 100 100 100 100 100 100 100 100
100 100 100 100 100 100 100 100 100 100 100 100 100 100 100 100 100 99 100 100 100 100 100 100 100 100 100 100 100 100 100 100 100 100 100 100 100 100
100 100 100 100 100 100 100 100 100 100 100 100 100 100 100 100 100 100 100 100 100 100 100 100 100 100 100 100 100 100 100 100 100 100 100 100 100 90
100 100 100 100 100 100 100 100 100 100 100 100 100 100 100 100 100 100 100 100 100 100 100 100 100 100 100 100 100 100 100 100 100 100 98 86 100 100
100 100 100 100 100 100 100 100 100 100 100 100 100 100 100 100 100 100 100 100 100 100 100 100 100 100 100 100 100 100 100 100 100 98 81 59 13 5
100 100 100 100 100 100 100 100 100 100 100 100 100 100 100 100 100 100 100 100 100 100 100 100 100 100 100 100 100 100 100 100 99 99 100 44 57 43
100 100 100 100 100 100 100 100 100 100 100 100 100 100 100 100 100 100 100 100 100 100 100 100 100 100 100 100 100 100 100 100 100 100 96 54 75 100
100 100 100 100 100 100 100 100 100 100 100 100 100 100 100 100 100 100 100 100 100 100 100 100 100 100 100 100 100 100 100 100 100 100 75 100 100 100
100 100 100 100 100 100 100 100 100 100 100 100 100 100 100 100 100 100 100 100 100 100 100 100 100 100 100 100 100 100 100 100 98 100 100 100 100 100
100 100 100 100 100 100 100 100 100 100 100 100 100 100 100 100 100 100 100 100 100 100 100 100 100 100 100 100 100 100 100 100 100 100 100 100 100 100
100 100 100 100 100 100 100 100 100 100 100 100 100 100 100 100 100 100 100 100 100 100 100 100 100 100 100 100 100 100 100 100 100 100 100 100 99 44
100 100 100 100 100 100 100 100 100 100 100 100 100 100 100 100 100 100 100 100 100 100 100 100 100 100 100 100 100 100 100 100 75 5 5 5 38 95
100 100 100 100 100 100 100 100 100 100 100 100 100 100 100 100 100 100 100 100 100 100 100 100 100 100 100 100 100 92 99 19 5 8 33 4 5 5
100 100 100 100 100 100 100 100 100 100 100 100 100 100 100 100 100 100 100 100 100 100 100 100 100 78 100 78 14 97 50 53 45 94 14 5 1 5
100 100 100 100 100 100 100 100 100 100 100 100 100 100 100 100 100 100 100 100 100 100 99 27 76 100 8 11 100 40 41 5 32 32 12 3 5 5
100 100 100 100 100 100 100 100 100 100 100 100 100 100 100 100 100 100 100 100 100 100 100 100 29 57 100 100 100 82 5 6 5 5 2 5 5 4
100 100 100 100 100 100 100 100 100 100 100 100 100 100 100 100 100 100 97 54 52 73 61 79 99 100 100 100 37 5 6 5 5 3 5 5 5 5
100 100 100 100 100 100 100 100 100 100 100 100 100 100 100 100 82 74 78 94 100 100 75 100 100 100 63 81 82 28 5 5 5 5 5 5 5 5
100 100 100 100 100 100 100 100 100 100 100 100 100 100 100 99 97 50 100 76 42 100 100 100 12 5 5 34 5 4 5 5 5 58 5 57 5 5
100 100 100 100 100 100 100 100 100 99 100 86 100 100 100 97 100 98 57 100 90 66 36 5 5 5 5 17 70 5 48 76 82 74 41 67 5 5
100 100 100 100 100 100 100 100 100 99 100 75 100 99 90 100 100 92 97 66 55 25 37 43 21 5 50 88 85 25 5 72 99 89 100 91 21 8
100 100 100 100 100 100 100 100 100 100 100 100 100 100 100 100 100 100 100 91 100 38 68 42 15 5 28 67 14 10 5 5 5 5 12 84 96 92
100 100 100 100 100 100 100 100 100 100 100 100 100 100 100 74 100 100 100 100 68 72 60 85 5 5 5 82 97 32 5 87 17 5 2 8 99 100